Time,TemperatureF,DewpointF,PressureIn,WindDirection,WindDirectionDegrees,WindSpeedMPH,WindSpeedGustMPH,Humidity,HourlyPrecipIn,Conditions,Clouds,dailyrainin,SoftwareType,DateUTC
2013-01-27 00:00:00,3.2,-0.8,30.36,WNW,299,0.0,0.0,83,0.00,,,0.00,Wunderground v.1.15,2013-01-27 05:00:00,
2013-01-27 00:05:00,3.1,-0.9,30.36,WNW,299,0.0,0.0,83,0.00,,,0.00,Wunderground v.1.15,2013-01-27 05:05:00,
2013-01-27 00:06:00,3.1,-0.9,30.36,WNW,299,0.0,0.0,83,0.00,,,0.00,Wunderground v.1.15,2013-01-27 05:06:00,
2013-01-27 00:08:00,3.1,-0.6,30.36,WNW,299,0.0,0.0,84,0.00,,,0.00,Wunderground v.1.15,2013-01-27 05:08:00,
2013-01-27 00:10:00,3.0,-0.7,30.36,WNW,299,0.0,0.0,84,0.00,,,0.00,Wunderground v.1.15,2013-01-27 05:10:00,
2013-01-27 00:12:00,3.0,-1.0,30.36,WNW,299,0.0,0.0,83,0.00,,,0.00,Wunderground v.1.15,2013-01-27 05:12:00,
2013-01-27 00:15:00,3.0,-0.7,30.36,WNW,299,0.0,0.0,84,0.00,,,0.00,Wunderground v.1.15,2013-01-27 05:15:00,
2013-01-27 00:17:00,3.0,-0.7,30.36,WNW,299,0.0,0.0,84,0.00,,,0.00,Wunderground v.1.15,2013-01-27 05:17:00,
2013-01-27 00:20:00,2.9,-0.8,30.36,WNW,299,0.0,0.0,84,0.00,,,0.00,Wunderground v.1.15,2013-01-27 05:20:00,
2013-01-27 00:22:00,3.0,-0.7,30.36,WNW,299,0.0,0.0,84,0.00,,,0.00,Wunderground v.1.15,2013-01-27 05:22:00,
2013-01-27 00:25:00,2.9,-0.8,30.36,WNW,299,0.0,0.0,84,0.00,,,0.00,Wunderground v.1.15,2013-01-27 05:25:00,
2013-01-27 00:27:00,2.9,-0.8,30.36,WNW,299,0.0,0.0,84,0.00,,,0.00,Wunderground v.1.15,2013-01-27 05:27:00,
2013-01-27 00:28:00,2.9,-0.8,30.36,WNW,299,0.0,0.0,84,0.00,,,0.00,Wunderground v.1.15,2013-01-27 05:28:00,
2013-01-27 00:29:00,2.9,-0.8,30.36,WNW,299,0.0,0.0,84,0.00,,,0.00,Wunderground v.1.15,2013-01-27 05:29:00,
2013-01-27 00:30:00,2.9,-0.8,30.36,WNW,299,0.0,0.0,84,0.00,,,0.00,Wunderground v.1.15,2013-01-27 05:30:00,
2013-01-27 00:34:00,2.8,-0.9,30.36,WNW,299,0.0,0.0,84,0.00,,,0.00,Wunderground v.1.15,2013-01-27 05:34:00,
2013-01-27 00:36:00,2.8,-0.9,30.36,WNW,299,0.0,0.0,84,0.00,,,0.00,Wunderground v.1.15,2013-01-27 05:36:00,
2013-01-27 00:38:00,2.7,-1.0,30.36,WNW,299,0.0,0.0,84,0.00,,,0.00,Wunderground v.1.15,2013-01-27 05:38:00,
2013-01-27 00:42:00,2.7,-0.8,30.36,WNW,299,0.0,0.0,85,0.00,,,0.00,Wunderground v.1.15,2013-01-27 05:42:00,
2013-01-27 00:44:00,2.6,-0.9,30.36,WNW,299,0.0,0.0,85,0.00,,,0.00,Wunderground v.1.15,2013-01-27 05:44:00,
2013-01-27 00:50:00,2.5,-1.0,30.36,WNW,299,0.0,0.0,85,0.00,,,0.00,Wunderground v.1.15,2013-01-27 05:50:00,
2013-01-27 00:52:00,2.4,-1.1,30.36,WNW,299,0.0,0.0,85,0.00,,,0.00,Wunderground v.1.15,2013-01-27 05:52:00,
2013-01-27 00:55:00,2.3,-1.2,30.36,WNW,299,0.0,0.0,85,0.00,,,0.00,Wunderground v.1.15,2013-01-27 05:55:00,
2013-01-27 00:56:00,2.3,-1.2,30.36,WNW,299,0.0,0.0,85,0.00,,,0.00,Wunderground v.1.15,2013-01-27 05:56:00,
2013-01-27 00:59:00,2.3,-1.2,30.36,WNW,299,0.0,0.0,85,0.00,,,0.00,Wunderground v.1.15,2013-01-27 05:59:00,
2013-01-27 01:01:00,2.2,-1.3,30.36,WNW,299,0.0,0.0,85,0.00,,,0.00,Wunderground v.1.15,2013-01-27 06:01:00,
2013-01-27 01:04:00,2.2,-1.3,30.36,WNW,299,0.0,0.0,85,0.00,,,0.00,Wunderground v.1.15,2013-01-27 06:04:00,
2013-01-27 01:05:00,2.2,-1.3,30.37,WNW,299,0.0,0.0,85,0.00,,,0.00,Wunderground v.1.15,2013-01-27 06:05:00,
2013-01-27 01:06:00,2.2,-1.3,30.36,WNW,299,0.0,0.0,85,0.00,,,0.00,Wunderground v.1.15,2013-01-27 06:06:00,
2013-01-27 01:12:00,2.1,-1.1,30.37,WNW,299,0.0,0.0,86,0.00,,,0.00,Wunderground v.1.15,2013-01-27 06:12:00,
2013-01-27 01:13:00,2.0,-1.2,30.37,WNW,299,0.0,0.0,86,0.00,,,0.00,Wunderground v.1.15,2013-01-27 06:13:00,
2013-01-27 01:19:00,1.9,-1.6,30.37,WNW,299,0.0,0.0,85,0.00,,,0.00,Wunderground v.1.15,2013-01-27 06:19:00,
2013-01-27 01:21:00,1.8,-1.7,30.37,WNW,299,0.0,0.0,85,0.00,,,0.00,Wunderground v.1.15,2013-01-27 06:21:00,
2013-01-27 01:23:00,1.8,-1.4,30.37,WNW,299,0.0,0.0,86,0.00,,,0.00,Wunderground v.1.15,2013-01-27 06:23:00,
2013-01-27 01:26:00,1.8,-1.4,30.37,WNW,299,0.0,0.0,86,0.00,,,0.00,Wunderground v.1.15,2013-01-27 06:26:00,
2013-01-27 01:30:00,1.7,-1.5,30.37,WNW,299,0.0,0.0,86,0.00,,,0.00,Wunderground v.1.15,2013-01-27 06:30:00,
2013-01-27 01:31:00,1.7,-1.5,30.37,WNW,299,0.0,0.0,86,0.00,,,0.00,Wunderground v.1.15,2013-01-27 06:31:00,
2013-01-27 01:33:00,1.7,-1.5,30.37,WNW,299,0.0,0.0,86,0.00,,,0.00,Wunderground v.1.15,2013-01-27 06:33:00,
2013-01-27 01:36:00,1.6,-1.6,30.38,WNW,299,0.0,0.0,86,0.00,,,0.00,Wunderground v.1.15,2013-01-27 06:36:00,
2013-01-27 01:39:00,1.6,-1.6,30.38,WNW,299,0.0,0.0,86,0.00,,,0.00,Wunderground v.1.15,2013-01-27 06:39:00,
2013-01-27 01:42:00,1.7,-1.5,30.38,WNW,299,0.0,0.0,86,0.00,,,0.00,Wunderground v.1.15,2013-01-27 06:42:00,
2013-01-27 01:46:00,1.7,-1.5,30.38,WNW,299,0.0,0.0,86,0.00,,,0.00,Wunderground v.1.15,2013-01-27 06:46:00,
2013-01-27 01:48:00,1.6,-1.6,30.38,WNW,299,0.0,0.0,86,0.00,,,0.00,Wunderground v.1.15,2013-01-27 06:48:00,
2013-01-27 01:49:00,1.6,-1.6,30.38,WNW,299,0.0,0.0,86,0.00,,,0.00,Wunderground v.1.15,2013-01-27 06:49:00,
2013-01-27 01:52:00,1.5,-1.7,30.39,WNW,299,0.0,0.0,86,0.00,,,0.00,Wunderground v.1.15,2013-01-27 06:52:00,
2013-01-27 01:53:00,1.5,-1.7,30.39,WNW,299,0.0,0.0,86,0.00,,,0.00,Wunderground v.1.15,2013-01-27 06:53:00,
2013-01-27 01:55:00,1.5,-1.7,30.39,WNW,299,0.0,0.0,86,0.00,,,0.00,Wunderground v.1.15,2013-01-27 06:55:00,
2013-01-27 01:57:00,1.5,-1.7,30.39,WNW,299,0.0,0.0,86,0.00,,,0.00,Wunderground v.1.15,2013-01-27 06:57:00,
2013-01-27 02:01:00,1.4,-1.8,30.39,WNW,299,0.0,0.0,86,0.00,,,0.00,Wunderground v.1.15,2013-01-27 07:01:00,
2013-01-27 02:03:00,1.3,-1.9,30.39,WNW,299,0.0,0.0,86,0.00,,,0.00,Wunderground v.1.15,2013-01-27 07:03:00,
2013-01-27 02:05:00,1.3,-1.9,30.39,WNW,299,0.0,0.0,86,0.00,,,0.00,Wunderground v.1.15,2013-01-27 07:05:00,
2013-01-27 02:08:00,1.3,-1.9,30.39,WNW,299,0.0,0.0,86,0.00,,,0.00,Wunderground v.1.15,2013-01-27 07:08:00,
2013-01-27 02:13:00,1.1,-2.1,30.39,WNW,299,0.0,0.0,86,0.00,,,0.00,Wunderground v.1.15,2013-01-27 07:13:00,
2013-01-27 02:14:00,1.1,-2.1,30.39,WNW,299,0.0,0.0,86,0.00,,,0.00,Wunderground v.1.15,2013-01-27 07:14:00,
2013-01-27 02:16:00,1.0,-2.2,30.39,WNW,299,0.0,0.0,86,0.00,,,0.00,Wunderground v.1.15,2013-01-27 07:16:00,
2013-01-27 02:18:00,1.0,-2.2,30.39,WNW,299,0.0,0.0,86,0.00,,,0.00,Wunderground v.1.15,2013-01-27 07:18:00,
2013-01-27 02:19:00,1.0,-2.2,30.39,WNW,299,0.0,0.0,86,0.00,,,0.00,Wunderground v.1.15,2013-01-27 07:19:00,
2013-01-27 02:20:00,0.9,-2.3,30.39,WNW,299,0.0,0.0,86,0.00,,,0.00,Wunderground v.1.15,2013-01-27 07:20:00,
2013-01-27 02:22:00,0.9,-2.3,30.39,WNW,299,0.0,0.0,86,0.00,,,0.00,Wunderground v.1.15,2013-01-27 07:22:00,
2013-01-27 02:23:00,0.8,-2.4,30.40,WNW,299,0.0,0.0,86,0.00,,,0.00,Wunderground v.1.15,2013-01-27 07:23:00,
2013-01-27 02:27:00,0.8,-2.4,30.40,WNW,299,0.0,0.0,86,0.00,,,0.00,Wunderground v.1.15,2013-01-27 07:27:00,
2013-01-27 02:28:00,0.8,-2.4,30.40,WNW,299,0.0,0.0,86,0.00,,,0.00,Wunderground v.1.15,2013-01-27 07:28:00,
2013-01-27 02:29:00,0.8,-2.4,30.40,WNW,299,0.0,0.0,86,0.00,,,0.00,Wunderground v.1.15,2013-01-27 07:29:00,
2013-01-27 02:33:00,0.8,-2.4,30.40,WNW,299,0.0,0.0,86,0.00,,,0.00,Wunderground v.1.15,2013-01-27 07:33:00,
2013-01-27 02:34:00,0.8,-2.4,30.40,WNW,299,0.0,0.0,86,0.00,,,0.00,Wunderground v.1.15,2013-01-27 07:34:00,
2013-01-27 02:35:00,0.7,-2.5,30.40,WNW,299,0.0,0.0,86,0.00,,,0.00,Wunderground v.1.15,2013-01-27 07:35:00,
2013-01-27 02:36:00,0.7,-2.5,30.40,WNW,299,0.0,0.0,86,0.00,,,0.00,Wunderground v.1.15,2013-01-27 07:36:00,
2013-01-27 02:39:00,0.7,-2.5,30.40,WNW,299,0.0,0.0,86,0.00,,,0.00,Wunderground v.1.15,2013-01-27 07:39:00,
2013-01-27 02:40:00,0.7,-2.5,30.40,WNW,299,0.0,0.0,86,0.00,,,0.00,Wunderground v.1.15,2013-01-27 07:40:00,
2013-01-27 02:41:00,0.7,-2.5,30.40,WNW,299,0.0,0.0,86,0.00,,,0.00,Wunderground v.1.15,2013-01-27 07:41:00,
2013-01-27 02:44:00,0.7,-2.5,30.40,WNW,299,0.0,0.0,86,0.00,,,0.00,Wunderground v.1.15,2013-01-27 07:44:00,
2013-01-27 02:45:00,0.7,-2.5,30.40,WNW,299,0.0,0.0,86,0.00,,,0.00,Wunderground v.1.15,2013-01-27 07:45:00,
2013-01-27 02:46:00,0.7,-2.3,30.40,WNW,299,0.0,0.0,87,0.00,,,0.00,Wunderground v.1.15,2013-01-27 07:46:00,
2013-01-27 02:47:00,0.7,-2.5,30.40,WNW,299,0.0,0.0,86,0.00,,,0.00,Wunderground v.1.15,2013-01-27 07:47:00,
2013-01-27 02:49:00,0.7,-2.5,30.40,WNW,299,0.0,0.0,86,0.00,,,0.00,Wunderground v.1.15,2013-01-27 07:49:00,
2013-01-27 02:51:00,0.6,-2.4,30.40,WNW,299,0.0,0.0,87,0.00,,,0.00,Wunderground v.1.15,2013-01-27 07:51:00,
2013-01-27 02:53:00,0.7,-2.3,30.40,WNW,299,0.0,0.0,87,0.00,,,0.00,Wunderground v.1.15,2013-01-27 07:53:00,
2013-01-27 02:55:00,0.7,-2.3,30.40,WNW,299,0.0,0.0,87,0.00,,,0.00,Wunderground v.1.15,2013-01-27 07:55:00,
2013-01-27 02:56:00,0.7,-2.3,30.40,WNW,299,0.0,0.0,87,0.00,,,0.00,Wunderground v.1.15,2013-01-27 07:56:00,
2013-01-27 02:59:00,0.7,-2.3,30.40,WNW,299,0.0,0.0,87,0.00,,,0.00,Wunderground v.1.15,2013-01-27 07:59:00,
2013-01-27 03:00:00,0.7,-2.3,30.40,WNW,299,0.0,0.0,87,0.00,,,0.00,Wunderground v.1.15,2013-01-27 08:00:00,
2013-01-27 03:03:00,0.7,-2.3,30.40,WNW,299,0.0,0.0,87,0.00,,,0.00,Wunderground v.1.15,2013-01-27 08:03:00,
2013-01-27 03:04:00,0.7,-2.3,30.40,WNW,299,0.0,0.0,87,0.00,,,0.00,Wunderground v.1.15,2013-01-27 08:04:00,
2013-01-27 03:05:00,0.7,-2.3,30.40,WNW,299,0.0,0.0,87,0.00,,,0.00,Wunderground v.1.15,2013-01-27 08:05:00,
2013-01-27 03:07:00,0.6,-2.6,30.40,WNW,299,0.0,0.0,86,0.00,,,0.00,Wunderground v.1.15,2013-01-27 08:07:00,
2013-01-27 03:08:00,0.6,-2.6,30.40,WNW,299,0.0,0.0,86,0.00,,,0.00,Wunderground v.1.15,2013-01-27 08:08:00,
2013-01-27 03:09:00,0.7,-2.5,30.40,WNW,299,0.0,0.0,86,0.00,,,0.00,Wunderground v.1.15,2013-01-27 08:09:00,
2013-01-27 03:11:00,0.7,-2.5,30.40,WNW,299,0.0,0.0,86,0.00,,,0.00,Wunderground v.1.15,2013-01-27 08:11:00,
2013-01-27 03:14:00,1.1,-1.6,30.41,WNW,299,0.0,0.0,88,0.00,,,0.00,Wunderground v.1.15,2013-01-27 08:14:00,
2013-01-27 03:15:00,1.1,-1.6,30.41,WNW,299,0.0,0.0,88,0.00,,,0.00,Wunderground v.1.15,2013-01-27 08:15:00,
2013-01-27 03:16:00,1.2,-1.5,30.41,WNW,299,0.0,0.0,88,0.00,,,0.00,Wunderground v.1.15,2013-01-27 08:16:00,
2013-01-27 03:20:00,1.5,-1.2,30.41,WNW,299,0.0,0.0,88,0.00,,,0.00,Wunderground v.1.15,2013-01-27 08:20:00,
2013-01-27 03:21:00,1.5,-1.2,30.41,WNW,299,0.0,0.0,88,0.00,,,0.00,Wunderground v.1.15,2013-01-27 08:21:00,
2013-01-27 03:22:00,1.5,-1.2,30.40,WNW,299,0.0,0.0,88,0.00,,,0.00,Wunderground v.1.15,2013-01-27 08:22:00,
2013-01-27 03:23:00,1.5,-1.5,30.40,WNW,299,0.0,0.0,87,0.00,,,0.00,Wunderground v.1.15,2013-01-27 08:23:00,
2013-01-27 03:26:00,1.5,-1.5,30.40,WNW,299,0.0,0.0,87,0.00,,,0.00,Wunderground v.1.15,2013-01-27 08:26:00,
2013-01-27 03:29:00,1.5,-1.5,30.40,WNW,299,0.0,0.0,87,0.00,,,0.00,Wunderground v.1.15,2013-01-27 08:29:00,
2013-01-27 03:30:00,1.5,-1.5,30.40,WNW,299,0.0,0.0,87,0.00,,,0.00,Wunderground v.1.15,2013-01-27 08:30:00,
2013-01-27 03:31:00,1.5,-1.5,30.40,WNW,299,0.0,0.0,87,0.00,,,0.00,Wunderground v.1.15,2013-01-27 08:31:00,
2013-01-27 03:32:00,1.5,-1.5,30.40,WNW,299,0.0,0.0,87,0.00,,,0.00,Wunderground v.1.15,2013-01-27 08:32:00,
2013-01-27 03:35:00,1.4,-1.6,30.40,WNW,299,0.0,0.0,87,0.00,,,0.00,Wunderground v.1.15,2013-01-27 08:35:00,
2013-01-27 03:37:00,1.4,-1.8,30.40,WNW,299,0.0,0.0,86,0.00,,,0.00,Wunderground v.1.15,2013-01-27 08:37:00,
2013-01-27 03:38:00,1.4,-1.6,30.40,WNW,299,0.0,0.0,87,0.00,,,0.00,Wunderground v.1.15,2013-01-27 08:38:00,
2013-01-27 03:41:00,1.4,-1.8,30.41,WNW,299,0.0,0.0,86,0.00,,,0.00,Wunderground v.1.15,2013-01-27 08:41:00,
2013-01-27 03:42:00,1.3,-1.9,30.41,WNW,299,0.0,0.0,86,0.00,,,0.00,Wunderground v.1.15,2013-01-27 08:42:00,
2013-01-27 03:43:00,1.3,-1.9,30.41,WNW,299,0.0,0.0,86,0.00,,,0.00,Wunderground v.1.15,2013-01-27 08:43:00,
2013-01-27 03:45:00,1.3,-1.9,30.41,WNW,299,0.0,0.0,86,0.00,,,0.00,Wunderground v.1.15,2013-01-27 08:45:00,
2013-01-27 03:49:00,1.3,-1.9,30.41,WNW,299,0.0,0.0,86,0.00,,,0.00,Wunderground v.1.15,2013-01-27 08:49:00,
2013-01-27 03:50:00,1.3,-1.7,30.41,WNW,299,0.0,0.0,87,0.00,,,0.00,Wunderground v.1.15,2013-01-27 08:50:00,
2013-01-27 03:54:00,1.3,-1.9,30.41,WNW,299,0.0,0.0,86,0.00,,,0.00,Wunderground v.1.15,2013-01-27 08:54:00,
2013-01-27 03:55:00,1.3,-1.9,30.41,WNW,299,0.0,0.0,86,0.00,,,0.00,Wunderground v.1.15,2013-01-27 08:55:00,
2013-01-27 03:56:00,1.2,-2.0,30.41,WNW,299,0.0,0.0,86,0.00,,,0.00,Wunderground v.1.15,2013-01-27 08:56:00,
2013-01-27 04:00:00,1.1,-2.1,30.41,WNW,299,0.0,0.0,86,0.00,,,0.00,Wunderground v.1.15,2013-01-27 09:00:00,
2013-01-27 04:01:00,1.1,-2.1,30.41,WNW,299,0.0,0.0,86,0.00,,,0.00,Wunderground v.1.15,2013-01-27 09:01:00,
2013-01-27 04:02:00,1.1,-2.1,30.41,WNW,299,0.0,0.0,86,0.00,,,0.00,Wunderground v.1.15,2013-01-27 09:02:00,
2013-01-27 04:05:00,1.0,-2.2,30.41,WNW,299,0.0,0.0,86,0.00,,,0.00,Wunderground v.1.15,2013-01-27 09:05:00,
2013-01-27 04:06:00,1.1,-2.1,30.41,WNW,299,0.0,0.0,86,0.00,,,0.00,Wunderground v.1.15,2013-01-27 09:06:00,
2013-01-27 04:07:00,1.1,-2.1,30.41,WNW,299,0.0,0.0,86,0.00,,,0.00,Wunderground v.1.15,2013-01-27 09:07:00,
2013-01-27 04:08:00,1.1,-2.1,30.41,WNW,299,0.0,0.0,86,0.00,,,0.00,Wunderground v.1.15,2013-01-27 09:08:00,
2013-01-27 04:12:00,1.2,-2.0,30.41,WNW,299,0.0,0.0,86,0.00,,,0.00,Wunderground v.1.15,2013-01-27 09:12:00,
2013-01-27 04:14:00,1.3,-1.9,30.41,WNW,299,0.0,0.0,86,0.00,,,0.00,Wunderground v.1.15,2013-01-27 09:14:00,
2013-01-27 04:15:00,1.3,-1.9,30.41,WNW,299,0.0,0.0,86,0.00,,,0.00,Wunderground v.1.15,2013-01-27 09:15:00,
2013-01-27 04:18:00,1.3,-1.7,30.41,WNW,299,0.0,0.0,87,0.00,,,0.00,Wunderground v.1.15,2013-01-27 09:18:00,
2013-01-27 04:19:00,1.3,-1.7,30.41,WNW,299,0.0,0.0,87,0.00,,,0.00,Wunderground v.1.15,2013-01-27 09:19:00,
2013-01-27 04:20:00,1.3,-1.7,30.41,WNW,299,0.0,0.0,87,0.00,,,0.00,Wunderground v.1.15,2013-01-27 09:20:00,
2013-01-27 04:21:00,1.4,-1.6,30.41,WNW,299,0.0,0.0,87,0.00,,,0.00,Wunderground v.1.15,2013-01-27 09:21:00,
2013-01-27 04:25:00,1.4,-1.6,30.42,WNW,299,0.0,0.0,87,0.00,,,0.00,Wunderground v.1.15,2013-01-27 09:25:00,
2013-01-27 04:28:00,1.4,-1.6,30.42,WNW,299,0.0,0.0,87,0.00,,,0.00,Wunderground v.1.15,2013-01-27 09:28:00,
2013-01-27 04:30:00,1.4,-1.6,30.42,WNW,299,0.0,0.0,87,0.00,,,0.00,Wunderground v.1.15,2013-01-27 09:30:00,
2013-01-27 04:31:00,1.4,-1.8,30.42,WNW,299,0.0,0.0,86,0.00,,,0.00,Wunderground v.1.15,2013-01-27 09:31:00,
2013-01-27 04:33:00,1.4,-1.8,30.42,WNW,299,0.0,0.0,86,0.00,,,0.00,Wunderground v.1.15,2013-01-27 09:33:00,
2013-01-27 04:35:00,1.4,-1.8,30.42,WNW,299,0.0,0.0,86,0.00,,,0.00,Wunderground v.1.15,2013-01-27 09:35:00,
2013-01-27 04:36:00,1.4,-1.8,30.42,WNW,299,0.0,0.0,86,0.00,,,0.00,Wunderground v.1.15,2013-01-27 09:36:00,
2013-01-27 04:38:00,1.4,-1.8,30.42,WNW,299,0.0,0.0,86,0.00,,,0.00,Wunderground v.1.15,2013-01-27 09:38:00,
2013-01-27 04:41:00,1.3,-1.9,30.42,WNW,299,0.0,0.0,86,0.00,,,0.00,Wunderground v.1.15,2013-01-27 09:41:00,
2013-01-27 04:43:00,1.3,-1.9,30.42,WNW,299,0.0,0.0,86,0.00,,,0.00,Wunderground v.1.15,2013-01-27 09:43:00,
2013-01-27 04:45:00,1.3,-1.9,30.42,WNW,299,0.0,0.0,86,0.00,,,0.00,Wunderground v.1.15,2013-01-27 09:45:00,
2013-01-27 04:46:00,1.2,-2.0,30.42,WNW,299,0.0,0.0,86,0.00,,,0.00,Wunderground v.1.15,2013-01-27 09:46:00,
2013-01-27 04:48:00,1.2,-2.0,30.42,WNW,299,0.0,0.0,86,0.00,,,0.00,Wunderground v.1.15,2013-01-27 09:48:00,
2013-01-27 04:49:00,1.2,-2.0,30.42,WNW,299,0.0,0.0,86,0.00,,,0.00,Wunderground v.1.15,2013-01-27 09:49:00,
2013-01-27 04:51:00,1.2,-2.0,30.42,WNW,299,0.0,0.0,86,0.00,,,0.00,Wunderground v.1.15,2013-01-27 09:51:00,
2013-01-27 04:53:00,1.1,-2.1,30.42,WNW,299,0.0,0.0,86,0.00,,,0.00,Wunderground v.1.15,2013-01-27 09:53:00,
2013-01-27 04:56:00,1.0,-2.2,30.42,WNW,299,0.0,0.0,86,0.00,,,0.00,Wunderground v.1.15,2013-01-27 09:56:00,
2013-01-27 04:57:00,1.0,-2.2,30.42,WNW,299,0.0,0.0,86,0.00,,,0.00,Wunderground v.1.15,2013-01-27 09:57:00,
2013-01-27 04:58:00,1.0,-2.2,30.42,WNW,299,0.0,0.0,86,0.00,,,0.00,Wunderground v.1.15,2013-01-27 09:58:00,
2013-01-27 04:59:00,1.0,-2.2,30.42,WNW,299,0.0,0.0,86,0.00,,,0.00,Wunderground v.1.15,2013-01-27 09:59:00,
2013-01-27 05:01:00,1.0,-2.2,30.42,WNW,299,0.0,0.0,86,0.00,,,0.00,Wunderground v.1.15,2013-01-27 10:01:00,
2013-01-27 05:03:00,1.0,-2.2,30.42,WNW,299,0.0,0.0,86,0.00,,,0.00,Wunderground v.1.15,2013-01-27 10:03:00,
2013-01-27 05:04:00,1.0,-2.2,30.42,WNW,299,0.0,0.0,86,0.00,,,0.00,Wunderground v.1.15,2013-01-27 10:04:00,
2013-01-27 05:05:00,1.0,-2.2,30.42,WNW,299,0.0,0.0,86,0.00,,,0.00,Wunderground v.1.15,2013-01-27 10:05:00,
2013-01-27 05:08:00,0.9,-2.3,30.43,WNW,299,0.0,0.0,86,0.00,,,0.00,Wunderground v.1.15,2013-01-27 10:08:00,
2013-01-27 05:10:00,0.9,-2.3,30.42,WNW,299,0.0,0.0,86,0.00,,,0.00,Wunderground v.1.15,2013-01-27 10:10:00,
2013-01-27 05:13:00,1.0,-2.2,30.42,WNW,299,0.0,0.0,86,0.00,,,0.00,Wunderground v.1.15,2013-01-27 10:13:00,
2013-01-27 05:14:00,1.0,-2.2,30.42,WNW,299,0.0,0.0,86,0.00,,,0.00,Wunderground v.1.15,2013-01-27 10:14:00,
2013-01-27 05:18:00,1.1,-2.1,30.43,WNW,299,0.0,0.0,86,0.00,,,0.00,Wunderground v.1.15,2013-01-27 10:18:00,
2013-01-27 05:19:00,1.2,-1.8,30.43,WNW,299,0.0,0.0,87,0.00,,,0.00,Wunderground v.1.15,2013-01-27 10:19:00,
2013-01-27 05:20:00,1.2,-1.8,30.43,WNW,299,0.0,0.0,87,0.00,,,0.00,Wunderground v.1.15,2013-01-27 10:20:00,
2013-01-27 05:23:00,1.4,-1.6,30.43,WNW,299,0.0,0.0,87,0.00,,,0.00,Wunderground v.1.15,2013-01-27 10:23:00,
2013-01-27 05:24:00,1.5,-1.5,30.43,WNW,299,0.0,0.0,87,0.00,,,0.00,Wunderground v.1.15,2013-01-27 10:24:00,
2013-01-27 05:25:00,1.5,-1.5,30.43,WNW,299,0.0,0.0,87,0.00,,,0.00,Wunderground v.1.15,2013-01-27 10:25:00,
2013-01-27 05:26:00,1.6,-1.4,30.43,WNW,299,0.0,0.0,87,0.00,,,0.00,Wunderground v.1.15,2013-01-27 10:26:00,
2013-01-27 05:29:00,1.6,-1.4,30.43,WNW,299,0.0,0.0,87,0.00,,,0.00,Wunderground v.1.15,2013-01-27 10:29:00,
2013-01-27 05:30:00,1.6,-1.4,30.43,WNW,299,0.0,0.0,87,0.00,,,0.00,Wunderground v.1.15,2013-01-27 10:30:00,
2013-01-27 05:31:00,1.6,-1.4,30.43,WNW,299,0.0,0.0,87,0.00,,,0.00,Wunderground v.1.15,2013-01-27 10:31:00,
2013-01-27 05:34:00,1.6,-1.4,30.43,WNW,299,0.0,0.0,87,0.00,,,0.00,Wunderground v.1.15,2013-01-27 10:34:00,
2013-01-27 05:36:00,1.5,-1.7,30.43,WNW,299,0.0,0.0,86,0.00,,,0.00,Wunderground v.1.15,2013-01-27 10:36:00,
2013-01-27 05:37:00,1.5,-1.7,30.43,WNW,299,0.0,0.0,86,0.00,,,0.00,Wunderground v.1.15,2013-01-27 10:37:00,
2013-01-27 05:38:00,1.5,-1.7,30.43,WNW,299,0.0,0.0,86,0.00,,,0.00,Wunderground v.1.15,2013-01-27 10:38:00,
2013-01-27 05:40:00,1.4,-1.8,30.44,WNW,299,0.0,0.0,86,0.00,,,0.00,Wunderground v.1.15,2013-01-27 10:40:00,
2013-01-27 05:41:00,1.3,-1.9,30.44,WNW,299,0.0,0.0,86,0.00,,,0.00,Wunderground v.1.15,2013-01-27 10:41:00,
2013-01-27 05:42:00,1.3,-1.9,30.44,WNW,299,0.0,0.0,86,0.00,,,0.00,Wunderground v.1.15,2013-01-27 10:42:00,
2013-01-27 05:43:00,1.3,-1.9,30.44,WNW,299,0.0,0.0,86,0.00,,,0.00,Wunderground v.1.15,2013-01-27 10:43:00,
2013-01-27 05:45:00,1.3,-1.9,30.44,WNW,299,0.0,0.0,86,0.00,,,0.00,Wunderground v.1.15,2013-01-27 10:45:00,
2013-01-27 05:47:00,1.4,-1.8,30.44,WNW,299,0.0,0.0,86,0.00,,,0.00,Wunderground v.1.15,2013-01-27 10:47:00,
2013-01-27 05:48:00,1.4,-1.8,30.44,WNW,299,0.0,0.0,86,0.00,,,0.00,Wunderground v.1.15,2013-01-27 10:48:00,
2013-01-27 05:49:00,1.4,-1.8,30.44,WNW,299,0.0,0.0,86,0.00,,,0.00,Wunderground v.1.15,2013-01-27 10:49:00,
2013-01-27 05:52:00,1.5,-1.5,30.44,WNW,299,0.0,0.0,87,0.00,,,0.00,Wunderground v.1.15,2013-01-27 10:52:00,
2013-01-27 05:53:00,1.5,-1.5,30.44,WNW,299,0.0,0.0,87,0.00,,,0.00,Wunderground v.1.15,2013-01-27 10:53:00,
2013-01-27 05:54:00,1.5,-1.5,30.44,WNW,299,0.0,0.0,87,0.00,,,0.00,Wunderground v.1.15,2013-01-27 10:54:00,
2013-01-27 05:57:00,1.5,-1.7,30.45,WNW,299,0.0,0.0,86,0.00,,,0.00,Wunderground v.1.15,2013-01-27 10:57:00,
2013-01-27 05:58:00,1.5,-1.7,30.45,WNW,299,0.0,0.0,86,0.00,,,0.00,Wunderground v.1.15,2013-01-27 10:58:00,
2013-01-27 06:02:00,1.4,-1.8,30.45,WNW,299,0.0,0.0,86,0.00,,,0.00,Wunderground v.1.15,2013-01-27 11:02:00,
2013-01-27 06:04:00,1.4,-1.8,30.45,WNW,299,0.0,0.0,86,0.00,,,0.00,Wunderground v.1.15,2013-01-27 11:04:00,
2013-01-27 06:08:00,1.4,-1.8,30.45,WNW,299,0.0,0.0,86,0.00,,,0.00,Wunderground v.1.15,2013-01-27 11:08:00,
2013-01-27 06:09:00,1.4,-1.8,30.45,WNW,299,0.0,0.0,86,0.00,,,0.00,Wunderground v.1.15,2013-01-27 11:09:00,
2013-01-27 06:11:00,1.4,-1.8,30.45,WNW,299,0.0,0.0,86,0.00,,,0.00,Wunderground v.1.15,2013-01-27 11:11:00,
2013-01-27 06:14:00,1.5,-1.5,30.45,WNW,299,0.0,0.0,87,0.00,,,0.00,Wunderground v.1.15,2013-01-27 11:14:00,
2013-01-27 06:15:00,1.4,-1.8,30.45,WNW,299,0.0,0.0,86,0.00,,,0.00,Wunderground v.1.15,2013-01-27 11:15:00,
2013-01-27 06:18:00,1.4,-1.8,30.45,WNW,299,0.0,0.0,86,0.00,,,0.00,Wunderground v.1.15,2013-01-27 11:18:00,
2013-01-27 06:19:00,1.4,-1.8,30.45,WNW,299,0.0,0.0,86,0.00,,,0.00,Wunderground v.1.15,2013-01-27 11:19:00,
2013-01-27 06:21:00,1.4,-1.8,30.45,WNW,299,0.0,0.0,86,0.00,,,0.00,Wunderground v.1.15,2013-01-27 11:21:00,
2013-01-27 06:23:00,1.4,-1.8,30.46,WNW,299,0.0,0.0,86,0.00,,,0.00,Wunderground v.1.15,2013-01-27 11:23:00,
2013-01-27 06:24:00,1.4,-1.8,30.46,WNW,299,0.0,0.0,86,0.00,,,0.00,Wunderground v.1.15,2013-01-27 11:24:00,
2013-01-27 06:26:00,1.3,-1.9,30.46,WNW,299,0.0,0.0,86,0.00,,,0.00,Wunderground v.1.15,2013-01-27 11:26:00,
2013-01-27 06:28:00,1.3,-1.9,30.46,WNW,299,0.0,0.0,86,0.00,,,0.00,Wunderground v.1.15,2013-01-27 11:28:00,
2013-01-27 06:31:00,1.3,-1.9,30.46,WNW,299,0.0,0.0,86,0.00,,,0.00,Wunderground v.1.15,2013-01-27 11:31:00,
2013-01-27 06:32:00,1.3,-1.9,30.46,WNW,299,0.0,0.0,86,0.00,,,0.00,Wunderground v.1.15,2013-01-27 11:32:00,
2013-01-27 06:35:00,1.3,-1.9,30.46,WNW,299,0.0,0.0,86,0.00,,,0.00,Wunderground v.1.15,2013-01-27 11:35:00,
2013-01-27 06:36:00,1.3,-1.9,30.46,WNW,299,0.0,0.0,86,0.00,,,0.00,Wunderground v.1.15,2013-01-27 11:36:00,
2013-01-27 06:37:00,1.3,-1.9,30.46,WNW,299,0.0,0.0,86,0.00,,,0.00,Wunderground v.1.15,2013-01-27 11:37:00,
2013-01-27 06:39:00,1.3,-1.9,30.46,WNW,299,0.0,0.0,86,0.00,,,0.00,Wunderground v.1.15,2013-01-27 11:39:00,
2013-01-27 06:41:00,1.4,-1.6,30.46,WNW,299,0.0,0.0,87,0.00,,,0.00,Wunderground v.1.15,2013-01-27 11:41:00,
2013-01-27 06:42:00,1.4,-1.6,30.46,WNW,299,0.0,0.0,87,0.00,,,0.00,Wunderground v.1.15,2013-01-27 11:42:00,
2013-01-27 06:44:00,1.4,-1.6,30.46,WNW,299,0.0,0.0,87,0.00,,,0.00,Wunderground v.1.15,2013-01-27 11:44:00,
2013-01-27 06:45:00,1.4,-1.6,30.46,WNW,299,0.0,0.0,87,0.00,,,0.00,Wunderground v.1.15,2013-01-27 11:45:00,
2013-01-27 06:47:00,1.3,-1.9,30.46,WNW,299,0.0,0.0,86,0.00,,,0.00,Wunderground v.1.15,2013-01-27 11:47:00,
2013-01-27 06:48:00,1.2,-2.0,30.46,WNW,299,0.0,0.0,86,0.00,,,0.00,Wunderground v.1.15,2013-01-27 11:48:00,
2013-01-27 06:49:00,1.2,-2.0,30.46,WNW,299,0.0,0.0,86,0.00,,,0.00,Wunderground v.1.15,2013-01-27 11:49:00,
2013-01-27 06:52:00,1.0,-2.2,30.46,WNW,299,0.0,0.0,86,0.00,,,0.00,Wunderground v.1.15,2013-01-27 11:52:00,
2013-01-27 06:53:00,1.0,-2.2,30.46,WNW,299,0.0,0.0,86,0.00,,,0.00,Wunderground v.1.15,2013-01-27 11:53:00,
2013-01-27 06:55:00,0.9,-2.3,30.46,WNW,299,0.0,0.0,86,0.00,,,0.00,Wunderground v.1.15,2013-01-27 11:55:00,
2013-01-27 06:58:00,0.8,-2.7,30.46,WNW,299,0.0,0.0,85,0.00,,,0.00,Wunderground v.1.15,2013-01-27 11:58:00,
2013-01-27 06:59:00,0.8,-2.7,30.46,WNW,299,0.0,0.0,85,0.00,,,0.00,Wunderground v.1.15,2013-01-27 11:59:00,
2013-01-27 07:01:00,0.8,-2.7,30.46,WNW,299,0.0,0.0,85,0.00,,,0.00,Wunderground v.1.15,2013-01-27 12:01:00,
2013-01-27 07:04:00,0.8,-2.4,30.46,WNW,299,0.0,0.0,86,0.00,,,0.00,Wunderground v.1.15,2013-01-27 12:04:00,
2013-01-27 07:06:00,0.9,-2.3,30.47,WNW,299,0.0,0.0,86,0.00,,,0.00,Wunderground v.1.15,2013-01-27 12:06:00,
2013-01-27 07:07:00,0.9,-2.3,30.47,WNW,299,0.0,0.0,86,0.00,,,0.00,Wunderground v.1.15,2013-01-27 12:07:00,
2013-01-27 07:10:00,1.0,-2.0,30.47,WNW,299,0.0,0.0,87,0.00,,,0.00,Wunderground v.1.15,2013-01-27 12:10:00,
2013-01-27 07:14:00,1.2,-1.8,30.47,WNW,299,0.0,0.0,87,0.00,,,0.00,Wunderground v.1.15,2013-01-27 12:14:00,
2013-01-27 07:15:00,1.3,-1.7,30.47,WNW,299,0.0,0.0,87,0.00,,,0.00,Wunderground v.1.15,2013-01-27 12:15:00,
2013-01-27 07:16:00,1.4,-1.6,30.47,WNW,299,0.0,0.0,87,0.00,,,0.00,Wunderground v.1.15,2013-01-27 12:16:00,
2013-01-27 07:21:00,1.7,-1.0,30.47,WNW,299,0.0,0.0,88,0.00,,,0.00,Wunderground v.1.15,2013-01-27 12:21:00,
2013-01-27 07:22:00,1.8,-0.9,30.47,WNW,303,0.0,0.0,88,0.00,,,0.00,Wunderground v.1.15,2013-01-27 12:22:00,
2013-01-27 07:25:00,2.2,-0.5,30.47,NW,304,0.0,1.0,88,0.00,,,0.00,Wunderground v.1.15,2013-01-27 12:25:00,
2013-01-27 07:26:00,2.3,-0.4,30.47,NW,304,0.0,1.0,88,0.00,,,0.00,Wunderground v.1.15,2013-01-27 12:26:00,
2013-01-27 07:27:00,2.4,-0.1,30.47,NW,304,0.0,1.0,89,0.00,,,0.00,Wunderground v.1.15,2013-01-27 12:27:00,
2013-01-27 07:28:00,2.5,-0.2,30.48,NW,304,0.0,1.0,88,0.00,,,0.00,Wunderground v.1.15,2013-01-27 12:28:00,
2013-01-27 07:31:00,2.7,0.0,30.48,NW,304,0.0,1.0,88,0.00,,,0.00,Wunderground v.1.15,2013-01-27 12:31:00,
2013-01-27 07:33:00,2.8,0.1,30.48,NW,304,0.0,0.0,88,0.00,,,0.00,Wunderground v.1.15,2013-01-27 12:33:00,
2013-01-27 07:34:00,2.8,0.1,30.48,NW,304,0.0,0.0,88,0.00,,,0.00,Wunderground v.1.15,2013-01-27 12:34:00,
2013-01-27 07:37:00,3.1,0.3,30.48,NW,304,0.0,0.0,88,0.00,,,0.00,Wunderground v.1.15,2013-01-27 12:37:00,
2013-01-27 07:39:00,3.3,0.5,30.48,NW,304,0.0,0.0,88,0.00,,,0.00,Wunderground v.1.15,2013-01-27 12:39:00,
2013-01-27 07:40:00,3.3,0.5,30.48,NW,304,1.0,1.0,88,0.00,,,0.00,Wunderground v.1.15,2013-01-27 12:40:00,
2013-01-27 07:42:00,3.4,0.6,30.48,NW,304,0.0,0.0,88,0.00,,,0.00,Wunderground v.1.15,2013-01-27 12:42:00,
2013-01-27 07:43:00,3.5,0.7,30.48,NW,304,0.0,0.0,88,0.00,,,0.00,Wunderground v.1.15,2013-01-27 12:43:00,
2013-01-27 07:46:00,3.7,0.9,30.48,NW,304,0.0,0.0,88,0.00,,,0.00,Wunderground v.1.15,2013-01-27 12:46:00,
2013-01-27 07:48:00,3.8,1.3,30.48,North,11,1.0,1.0,89,0.00,,,0.00,Wunderground v.1.15,2013-01-27 12:48:00,
2013-01-27 07:50:00,4.1,1.6,30.49,North,355,0.0,1.0,89,0.00,,,0.00,Wunderground v.1.15,2013-01-27 12:50:00,
2013-01-27 07:51:00,4.1,1.6,30.49,North,355,0.0,1.0,89,0.00,,,0.00,Wunderground v.1.15,2013-01-27 12:51:00,
2013-01-27 07:53:00,4.3,1.8,30.49,North,355,0.0,0.0,89,0.00,,,0.00,Wunderground v.1.15,2013-01-27 12:53:00,
2013-01-27 07:56:00,4.4,1.6,30.49,North,355,0.0,0.0,88,0.00,,,0.00,Wunderground v.1.15,2013-01-27 12:56:00,
2013-01-27 07:58:00,4.5,2.0,30.49,North,355,0.0,0.0,89,0.00,,,0.00,Wunderground v.1.15,2013-01-27 12:58:00,
2013-01-27 07:59:00,4.5,1.7,30.49,North,355,0.0,0.0,88,0.00,,,0.00,Wunderground v.1.15,2013-01-27 12:59:00,
2013-01-27 08:01:00,4.6,1.8,30.49,WNW,300,0.0,2.0,88,0.00,,,0.00,Wunderground v.1.15,2013-01-27 13:01:00,
2013-01-27 08:03:00,4.8,2.0,30.49,WNW,300,0.0,0.0,88,0.00,,,0.00,Wunderground v.1.15,2013-01-27 13:03:00,
2013-01-27 08:05:00,5.0,2.5,30.49,WNW,300,0.0,0.0,89,0.00,,,0.00,Wunderground v.1.15,2013-01-27 13:05:00,
2013-01-27 08:08:00,5.2,2.7,30.49,SSW,194,0.0,0.0,89,0.00,,,0.00,Wunderground v.1.15,2013-01-27 13:08:00,
2013-01-27 08:09:00,5.3,2.8,30.49,SSW,194,0.0,0.0,89,0.00,,,0.00,Wunderground v.1.15,2013-01-27 13:09:00,
2013-01-27 08:10:00,5.4,2.9,30.49,SSW,194,0.0,0.0,89,0.00,,,0.00,Wunderground v.1.15,2013-01-27 13:10:00,
2013-01-27 08:11:00,5.4,2.9,30.49,SSW,194,0.0,0.0,89,0.00,,,0.00,Wunderground v.1.15,2013-01-27 13:11:00,
2013-01-27 08:14:00,5.5,2.7,30.49,West,272,2.0,3.0,88,0.00,,,0.00,Wunderground v.1.15,2013-01-27 13:14:00,
2013-01-27 08:15:00,5.7,3.2,30.49,WNW,284,0.0,3.0,89,0.00,,,0.00,Wunderground v.1.15,2013-01-27 13:15:00,
2013-01-27 08:16:00,5.8,3.3,30.49,WSW,258,1.0,3.0,89,0.00,,,0.00,Wunderground v.1.15,2013-01-27 13:16:00,
2013-01-27 08:17:00,5.9,3.4,30.49,WSW,258,0.0,3.0,89,0.00,,,0.00,Wunderground v.1.15,2013-01-27 13:17:00,
2013-01-27 08:19:00,6.0,3.5,30.50,WSW,258,0.0,3.0,89,0.00,,,0.00,Wunderground v.1.15,2013-01-27 13:19:00,
2013-01-27 08:20:00,6.1,3.6,30.50,WSW,258,0.0,3.0,89,0.00,,,0.00,Wunderground v.1.15,2013-01-27 13:20:00,
2013-01-27 08:21:00,6.2,3.7,30.50,WSW,258,0.0,0.0,89,0.00,,,0.00,Wunderground v.1.15,2013-01-27 13:21:00,
2013-01-27 08:23:00,6.3,3.8,30.50,WSW,258,0.0,0.0,89,0.00,,,0.00,Wunderground v.1.15,2013-01-27 13:23:00,
2013-01-27 08:25:00,6.4,3.9,30.50,WSW,258,0.0,0.0,89,0.00,,,0.00,Wunderground v.1.15,2013-01-27 13:25:00,
2013-01-27 08:27:00,6.6,4.0,30.50,WNW,284,0.0,1.0,89,0.00,,,0.00,Wunderground v.1.15,2013-01-27 13:27:00,
2013-01-27 08:30:00,6.8,4.2,30.50,WNW,284,0.0,1.0,89,0.00,,,0.00,Wunderground v.1.15,2013-01-27 13:30:00,
2013-01-27 08:32:00,6.9,4.3,30.50,WNW,284,0.0,0.0,89,0.00,,,0.00,Wunderground v.1.15,2013-01-27 13:32:00,
2013-01-27 08:35:00,7.1,4.5,30.50,NNW,331,0.0,2.0,89,0.00,,,0.00,Wunderground v.1.15,2013-01-27 13:35:00,
2013-01-27 08:36:00,7.1,4.5,30.50,NNW,331,0.0,2.0,89,0.00,,,0.00,Wunderground v.1.15,2013-01-27 13:36:00,
2013-01-27 08:37:00,7.3,4.7,30.50,NW,316,0.0,2.0,89,0.00,,,0.00,Wunderground v.1.15,2013-01-27 13:37:00,
2013-01-27 08:41:00,7.7,4.9,30.50,NW,316,0.0,2.0,88,0.00,,,0.00,Wunderground v.1.15,2013-01-27 13:41:00,
2013-01-27 08:42:00,7.8,5.2,30.50,WNW,288,2.0,3.0,89,0.00,,,0.00,Wunderground v.1.15,2013-01-27 13:42:00,
2013-01-27 08:43:00,8.0,5.2,30.50,East,82,0.0,3.0,88,0.00,,,0.00,Wunderground v.1.15,2013-01-27 13:43:00,
2013-01-27 08:45:00,8.2,5.6,30.50,ENE,78,0.0,3.0,89,0.00,,,0.00,Wunderground v.1.15,2013-01-27 13:45:00,
2013-01-27 08:46:00,8.3,5.5,30.51,WNW,289,0.0,3.0,88,0.00,,,0.00,Wunderground v.1.15,2013-01-27 13:46:00,
2013-01-27 08:48:00,8.5,5.9,30.51,WNW,288,0.0,3.0,89,0.00,,,0.00,Wunderground v.1.15,2013-01-27 13:48:00,
2013-01-27 08:52:00,8.7,5.9,30.51,NW,324,0.0,1.0,88,0.00,,,0.00,Wunderground v.1.15,2013-01-27 13:52:00,
2013-01-27 08:53:00,8.8,6.0,30.51,WNW,302,1.0,1.0,88,0.00,,,0.00,Wunderground v.1.15,2013-01-27 13:53:00,
2013-01-27 08:54:00,8.9,6.1,30.51,NNW,344,0.0,1.0,88,0.00,,,0.00,Wunderground v.1.15,2013-01-27 13:54:00,
2013-01-27 08:57:00,9.0,5.9,30.51,WNW,288,1.0,3.0,87,0.00,,,0.00,Wunderground v.1.15,2013-01-27 13:57:00,
2013-01-27 08:58:00,9.0,5.9,30.51,WNW,296,2.0,3.0,87,0.00,,,0.00,Wunderground v.1.15,2013-01-27 13:58:00,
2013-01-27 09:00:00,9.1,6.0,30.51,WNW,296,0.0,3.0,87,0.00,,,0.00,Wunderground v.1.15,2013-01-27 14:00:00,
2013-01-27 09:02:00,9.2,6.1,30.51,WSW,257,2.0,3.0,87,0.00,,,0.00,Wunderground v.1.15,2013-01-27 14:02:00,
2013-01-27 09:03:00,9.2,6.1,30.51,WSW,257,1.0,3.0,87,0.00,,,0.00,Wunderground v.1.15,2013-01-27 14:03:00,
2013-01-27 09:05:00,9.3,6.2,30.51,WSW,257,0.0,3.0,87,0.00,,,0.00,Wunderground v.1.15,2013-01-27 14:05:00,
2013-01-27 09:07:00,9.4,6.1,30.51,WSW,257,0.0,3.0,86,0.00,,,0.00,Wunderground v.1.15,2013-01-27 14:07:00,
2013-01-27 09:11:00,9.6,6.5,30.51,NE,38,1.0,3.0,87,0.00,,,0.00,Wunderground v.1.15,2013-01-27 14:11:00,
2013-01-27 09:12:00,9.7,6.6,30.51,WNW,295,0.0,2.0,87,0.00,,,0.00,Wunderground v.1.15,2013-01-27 14:12:00,
2013-01-27 09:16:00,9.9,6.6,30.51,WSW,244,3.0,3.0,86,0.00,,,0.00,Wunderground v.1.15,2013-01-27 14:16:00,
2013-01-27 09:17:00,10.0,6.6,30.51,West,271,0.0,3.0,86,0.00,,,0.00,Wunderground v.1.15,2013-01-27 14:17:00,
2013-01-27 09:19:00,10.1,6.7,30.51,SW,234,4.0,4.0,86,0.00,,,0.00,Wunderground v.1.15,2013-01-27 14:19:00,
2013-01-27 09:23:00,10.1,6.5,30.51,West,277,3.0,3.0,85,0.00,,,0.00,Wunderground v.1.15,2013-01-27 14:23:00,
2013-01-27 09:25:00,10.1,6.2,30.51,West,271,1.0,4.0,84,0.00,,,0.00,Wunderground v.1.15,2013-01-27 14:25:00,
2013-01-27 09:30:00,10.3,6.2,30.51,West,280,2.0,4.0,83,0.00,,,0.00,Wunderground v.1.15,2013-01-27 14:30:00,
2013-01-27 09:33:00,10.4,6.3,30.51,WSW,257,3.0,3.0,83,0.00,,,0.00,Wunderground v.1.15,2013-01-27 14:33:00,
2013-01-27 09:35:00,10.5,6.4,30.51,WNW,286,2.0,4.0,83,0.00,,,0.00,Wunderground v.1.15,2013-01-27 14:35:00,
2013-01-27 09:37:00,10.7,6.3,30.51,West,278,1.0,4.0,82,0.00,,,0.00,Wunderground v.1.15,2013-01-27 14:37:00,
2013-01-27 09:41:00,10.9,6.5,30.51,WNW,300,0.0,4.0,82,0.00,,,0.00,Wunderground v.1.15,2013-01-27 14:41:00,
2013-01-27 09:42:00,11.0,6.3,30.51,West,279,0.0,2.0,81,0.00,,,0.00,Wunderground v.1.15,2013-01-27 14:42:00,
2013-01-27 09:44:00,11.0,6.3,30.51,West,271,0.0,3.0,81,0.00,,,0.00,Wunderground v.1.15,2013-01-27 14:44:00,
2013-01-27 09:47:00,11.2,6.2,30.52,West,276,3.0,3.0,80,0.00,,,0.00,Wunderground v.1.15,2013-01-27 14:47:00,
2013-01-27 09:49:00,11.3,6.1,30.52,West,279,2.0,3.0,79,0.00,,,0.00,Wunderground v.1.15,2013-01-27 14:49:00,
2013-01-27 09:50:00,11.3,6.1,30.52,West,279,0.0,3.0,79,0.00,,,0.00,Wunderground v.1.15,2013-01-27 14:50:00,
2013-01-27 09:54:00,11.6,6.1,30.52,West,272,3.0,4.0,78,0.00,,,0.00,Wunderground v.1.15,2013-01-27 14:54:00,
2013-01-27 09:55:00,11.7,5.9,30.52,WNW,294,4.0,4.0,77,0.00,,,0.00,Wunderground v.1.15,2013-01-27 14:55:00,
2013-01-27 09:56:00,11.7,5.9,30.52,West,272,2.0,4.0,77,0.00,,,0.00,Wunderground v.1.15,2013-01-27 14:56:00,
2013-01-27 09:58:00,11.8,6.0,30.52,WNW,296,1.0,4.0,77,0.00,,,0.00,Wunderground v.1.15,2013-01-27 14:58:00,
2013-01-27 09:59:00,11.9,5.8,30.52,WNW,290,0.0,4.0,76,0.00,,,0.00,Wunderground v.1.15,2013-01-27 14:59:00,
2013-01-27 10:01:00,12.0,5.9,30.52,WNW,290,0.0,4.0,76,0.00,,,0.00,Wunderground v.1.15,2013-01-27 15:01:00,
2013-01-27 10:02:00,12.1,6.0,30.52,WNW,288,1.0,2.0,76,0.00,,,0.00,Wunderground v.1.15,2013-01-27 15:02:00,
2013-01-27 10:03:00,12.1,6.0,30.52,WNW,289,1.0,5.0,76,0.00,,,0.00,Wunderground v.1.15,2013-01-27 15:03:00,
2013-01-27 10:05:00,12.2,5.5,30.52,WNW,284,3.0,5.0,74,0.00,,,0.00,Wunderground v.1.15,2013-01-27 15:05:00,
2013-01-27 10:07:00,12.2,5.5,30.52,WNW,302,3.0,5.0,74,0.00,,,0.00,Wunderground v.1.15,2013-01-27 15:07:00,
2013-01-27 10:09:00,12.4,5.7,30.53,WNW,298,1.0,5.0,74,0.00,,,0.00,Wunderground v.1.15,2013-01-27 15:09:00,
2013-01-27 10:10:00,12.5,5.8,30.53,WNW,283,4.0,5.0,74,0.00,,,0.00,Wunderground v.1.15,2013-01-27 15:10:00,
2013-01-27 10:12:00,12.6,5.6,30.53,WNW,296,0.0,2.0,73,0.00,,,0.00,Wunderground v.1.15,2013-01-27 15:12:00,
2013-01-27 10:14:00,12.7,5.4,30.53,West,278,1.0,4.0,72,0.00,,,0.00,Wunderground v.1.15,2013-01-27 15:14:00,
2013-01-27 10:18:00,12.9,5.3,30.53,West,271,3.0,4.0,71,0.00,,,0.00,Wunderground v.1.15,2013-01-27 15:18:00,
2013-01-27 10:19:00,13.0,5.4,30.53,NW,314,0.0,5.0,71,0.00,,,0.00,Wunderground v.1.15,2013-01-27 15:19:00,
2013-01-27 10:20:00,13.1,5.5,30.53,NNW,338,0.0,5.0,71,0.00,,,0.00,Wunderground v.1.15,2013-01-27 15:20:00,
2013-01-27 10:23:00,13.5,5.5,30.53,NW,319,4.0,4.0,70,0.00,,,0.00,Wunderground v.1.15,2013-01-27 15:23:00,
2013-01-27 10:25:00,13.7,5.4,30.54,West,269,1.0,4.0,69,0.00,,,0.00,Wunderground v.1.15,2013-01-27 15:25:00,
2013-01-27 10:28:00,14.0,5.4,30.54,West,271,1.0,4.0,68,0.00,,,0.00,Wunderground v.1.15,2013-01-27 15:28:00,
2013-01-27 10:31:00,14.0,5.1,30.54,WNW,288,0.0,5.0,67,0.00,,,0.00,Wunderground v.1.15,2013-01-27 15:31:00,
2013-01-27 10:33:00,14.2,5.2,30.54,NW,323,2.0,4.0,67,0.00,,,0.00,Wunderground v.1.15,2013-01-27 15:33:00,
2013-01-27 10:34:00,14.2,5.2,30.54,WNW,290,3.0,4.0,67,0.00,,,0.00,Wunderground v.1.15,2013-01-27 15:34:00,
2013-01-27 10:37:00,14.5,5.5,30.54,WNW,292,1.0,4.0,67,0.00,,,0.00,Wunderground v.1.15,2013-01-27 15:37:00,
2013-01-27 10:39:00,14.6,5.3,30.54,NNW,331,1.0,4.0,66,0.00,,,0.00,Wunderground v.1.15,2013-01-27 15:39:00,
2013-01-27 10:40:00,14.6,5.3,30.54,NW,321,0.0,4.0,66,0.00,,,0.00,Wunderground v.1.15,2013-01-27 15:40:00,
2013-01-27 10:42:00,14.7,5.4,30.55,West,273,1.0,3.0,66,0.00,,,0.00,Wunderground v.1.15,2013-01-27 15:42:00,
2013-01-27 10:44:00,14.7,5.1,30.55,West,263,3.0,6.0,65,0.00,,,0.00,Wunderground v.1.15,2013-01-27 15:44:00,
2013-01-27 10:46:00,14.7,4.7,30.55,West,267,2.0,6.0,64,0.00,,,0.00,Wunderground v.1.15,2013-01-27 15:46:00,
2013-01-27 10:47:00,14.6,4.6,30.55,SW,236,2.0,6.0,64,0.00,,,0.00,Wunderground v.1.15,2013-01-27 15:47:00,
2013-01-27 10:48:00,14.6,4.6,30.55,WNW,284,1.0,6.0,64,0.00,,,0.00,Wunderground v.1.15,2013-01-27 15:48:00,
2013-01-27 10:50:00,14.6,4.6,30.55,West,275,0.0,6.0,64,0.00,,,0.00,Wunderground v.1.15,2013-01-27 15:50:00,
2013-01-27 10:51:00,14.7,4.7,30.54,WNW,282,0.0,3.0,64,0.00,,,0.00,Wunderground v.1.15,2013-01-27 15:51:00,
2013-01-27 10:53:00,14.8,4.8,30.54,WNW,293,0.0,4.0,64,0.00,,,0.00,Wunderground v.1.15,2013-01-27 15:53:00,
2013-01-27 10:54:00,14.9,4.6,30.54,West,262,1.0,4.0,63,0.00,,,0.00,Wunderground v.1.15,2013-01-27 15:54:00,
2013-01-27 10:55:00,15.0,4.7,30.54,West,273,2.0,4.0,63,0.00,,,0.00,Wunderground v.1.15,2013-01-27 15:55:00,
2013-01-27 10:57:00,15.2,4.9,30.54,West,259,3.0,4.0,63,0.00,,,0.00,Wunderground v.1.15,2013-01-27 15:57:00,
2013-01-27 10:58:00,15.2,4.1,30.54,WNW,290,7.0,7.0,61,0.00,,,0.00,Wunderground v.1.15,2013-01-27 15:58:00,
2013-01-27 11:00:00,15.1,3.7,30.54,NW,312,3.0,7.0,60,0.00,,,0.00,Wunderground v.1.15,2013-01-27 16:00:00,
2013-01-27 11:01:00,15.2,3.8,30.54,ENE,65,3.0,3.0,60,0.00,,,0.00,Wunderground v.1.15,2013-01-27 16:01:00,
2013-01-27 11:03:00,15.4,4.0,30.54,WSW,254,1.0,4.0,60,0.00,,,0.00,Wunderground v.1.15,2013-01-27 16:03:00,
2013-01-27 11:04:00,15.4,4.0,30.54,ENE,61,3.0,4.0,60,0.00,,,0.00,Wunderground v.1.15,2013-01-27 16:04:00,
2013-01-27 11:06:00,15.6,3.8,30.54,NNW,346,2.0,4.0,59,0.00,,,0.00,Wunderground v.1.15,2013-01-27 16:06:00,
2013-01-27 11:09:00,16.2,4.7,30.54,NW,319,1.0,4.0,60,0.00,,,0.00,Wunderground v.1.15,2013-01-27 16:09:00,
2013-01-27 11:11:00,16.4,4.2,30.54,NW,310,3.0,4.0,58,0.00,,,0.00,Wunderground v.1.15,2013-01-27 16:11:00,
2013-01-27 11:14:00,16.5,3.5,30.54,East,96,2.0,7.0,56,0.00,,,0.00,Wunderground v.1.15,2013-01-27 16:14:00,
2013-01-27 11:15:00,16.5,3.5,30.54,North,355,4.0,7.0,56,0.00,,,0.00,Wunderground v.1.15,2013-01-27 16:15:00,
2013-01-27 11:16:00,16.6,3.6,30.54,WNW,289,2.0,7.0,56,0.00,,,0.00,Wunderground v.1.15,2013-01-27 16:16:00,
2013-01-27 11:19:00,16.6,4.0,30.54,West,265,1.0,7.0,57,0.00,,,0.00,Wunderground v.1.15,2013-01-27 16:19:00,
2013-01-27 11:21:00,16.6,4.0,30.54,WNW,284,0.0,7.0,57,0.00,,,0.00,Wunderground v.1.15,2013-01-27 16:21:00,
2013-01-27 11:25:00,16.8,4.6,30.54,NW,309,2.0,4.0,58,0.00,,,0.00,Wunderground v.1.15,2013-01-27 16:25:00,
2013-01-27 11:26:00,16.8,4.2,30.54,WNW,286,3.0,4.0,57,0.00,,,0.00,Wunderground v.1.15,2013-01-27 16:26:00,
2013-01-27 11:28:00,16.8,3.8,30.53,NNW,333,1.0,4.0,56,0.00,,,0.00,Wunderground v.1.15,2013-01-27 16:28:00,
2013-01-27 11:31:00,16.9,3.9,30.53,WSW,255,1.0,2.0,56,0.00,,,0.00,Wunderground v.1.15,2013-01-27 16:31:00,
2013-01-27 11:32:00,17.0,4.0,30.53,WSW,254,2.0,2.0,56,0.00,,,0.00,Wunderground v.1.15,2013-01-27 16:32:00,
2013-01-27 11:33:00,17.1,4.1,30.53,West,263,2.0,2.0,56,0.00,,,0.00,Wunderground v.1.15,2013-01-27 16:33:00,
2013-01-27 11:37:00,17.5,4.5,30.53,WNW,291,2.0,4.0,56,0.00,,,0.00,Wunderground v.1.15,2013-01-27 16:37:00,
2013-01-27 11:38:00,17.6,4.5,30.53,WNW,291,0.0,4.0,56,0.00,,,0.00,Wunderground v.1.15,2013-01-27 16:38:00,
2013-01-27 11:43:00,17.3,3.1,30.53,WNW,287,3.0,3.0,53,0.00,,,0.00,Wunderground v.1.15,2013-01-27 16:43:00,
2013-01-27 11:44:00,17.3,3.1,30.53,WNW,291,1.0,6.0,53,0.00,,,0.00,Wunderground v.1.15,2013-01-27 16:44:00,
2013-01-27 11:45:00,17.3,3.5,30.53,WNW,291,2.0,6.0,54,0.00,,,0.00,Wunderground v.1.15,2013-01-27 16:45:00,
2013-01-27 11:48:00,17.2,3.0,30.52,SW,229,3.0,6.0,53,0.00,,,0.00,Wunderground v.1.15,2013-01-27 16:48:00,
2013-01-27 11:49:00,17.1,2.9,30.53,WNW,282,1.0,6.0,53,0.00,,,0.00,Wunderground v.1.15,2013-01-27 16:49:00,
2013-01-27 11:51:00,17.2,3.4,30.53,WNW,282,0.0,6.0,54,0.00,,,0.00,Wunderground v.1.15,2013-01-27 16:51:00,
2013-01-27 11:53:00,17.6,3.8,30.53,WSW,244,2.0,4.0,54,0.00,,,0.00,Wunderground v.1.15,2013-01-27 16:53:00,
2013-01-27 11:55:00,17.8,3.9,30.53,WNW,287,1.0,4.0,54,0.00,,,0.00,Wunderground v.1.15,2013-01-27 16:55:00,
2013-01-27 11:56:00,17.9,3.2,30.53,West,281,5.0,6.0,52,0.00,,,0.00,Wunderground v.1.15,2013-01-27 16:56:00,
2013-01-27 11:57:00,17.9,3.2,30.53,NW,309,4.0,6.0,52,0.00,,,0.00,Wunderground v.1.15,2013-01-27 16:57:00,
2013-01-27 11:59:00,18.0,3.3,30.53,NW,317,3.0,6.0,52,0.00,,,0.00,Wunderground v.1.15,2013-01-27 16:59:00,
2013-01-27 12:01:00,18.1,3.4,30.52,West,259,5.0,6.0,52,0.00,,,0.00,Wunderground v.1.15,2013-01-27 17:01:00,
2013-01-27 12:02:00,18.0,3.3,30.53,WNW,290,3.0,3.0,52,0.00,,,0.00,Wunderground v.1.15,2013-01-27 17:02:00,
2013-01-27 12:04:00,18.0,3.3,30.52,NNW,333,1.0,5.0,52,0.00,,,0.00,Wunderground v.1.15,2013-01-27 17:04:00,
2013-01-27 12:07:00,18.2,3.5,30.53,West,278,1.0,5.0,52,0.00,,,0.00,Wunderground v.1.15,2013-01-27 17:07:00,
2013-01-27 12:08:00,18.3,3.6,30.53,WNW,285,3.0,6.0,52,0.00,,,0.00,Wunderground v.1.15,2013-01-27 17:08:00,
2013-01-27 12:09:00,18.4,3.7,30.53,WNW,286,3.0,6.0,52,0.00,,,0.00,Wunderground v.1.15,2013-01-27 17:09:00,
2013-01-27 12:12:00,18.5,3.4,30.53,WNW,283,1.0,3.0,51,0.00,,,0.00,Wunderground v.1.15,2013-01-27 17:12:00,
2013-01-27 12:13:00,18.5,3.4,30.53,WNW,302,2.0,4.0,51,0.00,,,0.00,Wunderground v.1.15,2013-01-27 17:13:00,
2013-01-27 12:14:00,18.6,3.4,30.53,WNW,301,3.0,4.0,51,0.00,,,0.00,Wunderground v.1.15,2013-01-27 17:14:00,
2013-01-27 12:16:00,18.7,3.5,30.53,WNW,296,2.0,4.0,51,0.00,,,0.00,Wunderground v.1.15,2013-01-27 17:16:00,
2013-01-27 12:20:00,19.0,3.8,30.52,WSW,254,0.0,4.0,51,0.00,,,0.00,Wunderground v.1.15,2013-01-27 17:20:00,
2013-01-27 12:22:00,19.1,3.9,30.52,WSW,245,1.0,3.0,51,0.00,,,0.00,Wunderground v.1.15,2013-01-27 17:22:00,
2013-01-27 12:25:00,19.1,3.5,30.52,West,263,3.0,4.0,50,0.00,,,0.00,Wunderground v.1.15,2013-01-27 17:25:00,
2013-01-27 12:26:00,19.1,3.5,30.52,WNW,296,1.0,4.0,50,0.00,,,0.00,Wunderground v.1.15,2013-01-27 17:26:00,
2013-01-27 12:27:00,19.2,4.0,30.52,West,278,3.0,4.0,51,0.00,,,0.00,Wunderground v.1.15,2013-01-27 17:27:00,
2013-01-27 12:28:00,19.2,4.0,30.52,WNW,292,3.0,4.0,51,0.00,,,0.00,Wunderground v.1.15,2013-01-27 17:28:00,
2013-01-27 12:31:00,19.3,4.5,30.52,WNW,282,4.0,4.0,52,0.00,,,0.00,Wunderground v.1.15,2013-01-27 17:31:00,
2013-01-27 12:32:00,19.3,4.9,30.52,WNW,284,2.0,2.0,53,0.00,,,0.00,Wunderground v.1.15,2013-01-27 17:32:00,
2013-01-27 12:33:00,19.4,5.0,30.52,WNW,289,2.0,3.0,53,0.00,,,0.00,Wunderground v.1.15,2013-01-27 17:33:00,
2013-01-27 12:37:00,19.4,5.4,30.52,WNW,285,5.0,8.0,54,0.00,,,0.00,Wunderground v.1.15,2013-01-27 17:37:00,
2013-01-27 12:38:00,19.3,4.9,30.52,West,272,1.0,8.0,53,0.00,,,0.00,Wunderground v.1.15,2013-01-27 17:38:00,
2013-01-27 12:40:00,19.3,5.7,30.52,WNW,303,1.0,8.0,55,0.00,,,0.00,Wunderground v.1.15,2013-01-27 17:40:00,
2013-01-27 12:43:00,19.3,4.9,30.51,NW,319,2.0,5.0,53,0.00,,,0.00,Wunderground v.1.15,2013-01-27 17:43:00,
2013-01-27 12:44:00,19.3,4.9,30.51,NW,321,1.0,5.0,53,0.00,,,0.00,Wunderground v.1.15,2013-01-27 17:44:00,
2013-01-27 12:46:00,19.5,5.1,30.51,WNW,289,4.0,5.0,53,0.00,,,0.00,Wunderground v.1.15,2013-01-27 17:46:00,
2013-01-27 12:49:00,19.8,5.0,30.51,NNW,339,2.0,5.0,52,0.00,,,0.00,Wunderground v.1.15,2013-01-27 17:49:00,
2013-01-27 12:51:00,20.0,5.2,30.51,West,261,2.0,5.0,52,0.00,,,0.00,Wunderground v.1.15,2013-01-27 17:51:00,
2013-01-27 12:53:00,20.1,4.8,30.52,WNW,302,4.0,6.0,51,0.00,,,0.00,Wunderground v.1.15,2013-01-27 17:53:00,
2013-01-27 12:54:00,20.0,4.3,30.52,WNW,296,3.0,6.0,50,0.00,,,0.00,Wunderground v.1.15,2013-01-27 17:54:00,
2013-01-27 12:55:00,20.0,4.3,30.52,WNW,288,5.0,6.0,50,0.00,,,0.00,Wunderground v.1.15,2013-01-27 17:55:00,
2013-01-27 12:56:00,19.8,3.7,30.52,WNW,283,5.0,6.0,49,0.00,,,0.00,Wunderground v.1.15,2013-01-27 17:56:00,
2013-01-27 12:59:00,19.5,3.4,30.52,WNW,296,2.0,6.0,49,0.00,,,0.00,Wunderground v.1.15,2013-01-27 17:59:00,
2013-01-27 13:00:00,19.5,3.4,30.52,West,269,2.0,6.0,49,0.00,,,0.00,Wunderground v.1.15,2013-01-27 18:00:00,
2013-01-27 13:01:00,19.7,4.0,30.52,SW,217,3.0,6.0,50,0.00,,,0.00,Wunderground v.1.15,2013-01-27 18:01:00,
2013-01-27 13:05:00,20.0,4.7,30.52,WNW,283,8.0,8.0,51,0.00,,,0.00,Wunderground v.1.15,2013-01-27 18:05:00,
2013-01-27 13:06:00,20.0,4.7,30.52,WNW,296,2.0,8.0,51,0.00,,,0.00,Wunderground v.1.15,2013-01-27 18:06:00,
2013-01-27 13:11:00,20.1,4.8,30.52,NW,320,2.0,8.0,51,0.00,,,0.00,Wunderground v.1.15,2013-01-27 18:11:00,
2013-01-27 13:13:00,20.3,5.0,30.52,SW,234,3.0,7.0,51,0.00,,,0.00,Wunderground v.1.15,2013-01-27 18:13:00,
2013-01-27 13:16:00,20.4,4.2,30.51,WNW,294,3.0,7.0,49,0.00,,,0.00,Wunderground v.1.15,2013-01-27 18:16:00,
2013-01-27 13:17:00,20.4,4.2,30.51,NW,310,2.0,7.0,49,0.00,,,0.00,Wunderground v.1.15,2013-01-27 18:17:00,
2013-01-27 13:18:00,20.4,4.2,30.51,NW,309,0.0,7.0,49,0.00,,,0.00,Wunderground v.1.15,2013-01-27 18:18:00,
2013-01-27 13:19:00,20.5,4.8,30.51,NW,311,4.0,7.0,50,0.00,,,0.00,Wunderground v.1.15,2013-01-27 18:19:00,
2013-01-27 13:22:00,20.6,4.4,30.51,West,269,0.0,5.0,49,0.00,,,0.00,Wunderground v.1.15,2013-01-27 18:22:00,
2013-01-27 13:23:00,20.7,4.5,30.51,WNW,285,2.0,5.0,49,0.00,,,0.00,Wunderground v.1.15,2013-01-27 18:23:00,
2013-01-27 13:24:00,20.7,4.5,30.51,West,268,3.0,5.0,49,0.00,,,0.00,Wunderground v.1.15,2013-01-27 18:24:00,
2013-01-27 13:28:00,20.8,3.7,30.51,WSW,242,4.0,5.0,47,0.00,,,0.00,Wunderground v.1.15,2013-01-27 18:28:00,
2013-01-27 13:29:00,20.9,4.3,30.51,WSW,240,6.0,6.0,48,0.00,,,0.00,Wunderground v.1.15,2013-01-27 18:29:00,
2013-01-27 13:30:00,20.8,3.7,30.51,West,266,4.0,6.0,47,0.00,,,0.00,Wunderground v.1.15,2013-01-27 18:30:00,
2013-01-27 13:31:00,20.8,3.7,30.51,WNW,292,2.0,6.0,47,0.00,,,0.00,Wunderground v.1.15,2013-01-27 18:31:00,
2013-01-27 13:34:00,20.8,3.2,30.51,NW,315,2.0,6.0,46,0.00,,,0.00,Wunderground v.1.15,2013-01-27 18:34:00,
2013-01-27 13:35:00,20.8,3.2,30.51,West,277,4.0,6.0,46,0.00,,,0.00,Wunderground v.1.15,2013-01-27 18:35:00,
2013-01-27 13:38:00,20.9,3.8,30.51,WNW,284,0.0,6.0,47,0.00,,,0.00,Wunderground v.1.15,2013-01-27 18:38:00,
2013-01-27 13:39:00,21.0,3.4,30.51,WSW,247,2.0,6.0,46,0.00,,,0.00,Wunderground v.1.15,2013-01-27 18:39:00,
2013-01-27 13:40:00,21.1,3.0,30.51,NNW,341,5.0,6.0,45,0.00,,,0.00,Wunderground v.1.15,2013-01-27 18:40:00,
2013-01-27 13:42:00,21.2,3.6,30.51,WNW,302,2.0,3.0,46,0.00,,,0.00,Wunderground v.1.15,2013-01-27 18:42:00,
2013-01-27 13:43:00,21.3,3.7,30.51,SW,229,2.0,8.0,46,0.00,,,0.00,Wunderground v.1.15,2013-01-27 18:43:00,
2013-01-27 13:44:00,21.4,3.8,30.51,WSW,252,1.0,8.0,46,0.00,,,0.00,Wunderground v.1.15,2013-01-27 18:44:00,
2013-01-27 13:46:00,21.5,2.9,30.51,West,278,2.0,8.0,44,0.00,,,0.00,Wunderground v.1.15,2013-01-27 18:46:00,
2013-01-27 13:48:00,21.5,2.9,30.51,NW,306,2.0,8.0,44,0.00,,,0.00,Wunderground v.1.15,2013-01-27 18:48:00,
2013-01-27 13:50:00,21.6,3.5,30.51,WNW,294,3.0,8.0,45,0.00,,,0.00,Wunderground v.1.15,2013-01-27 18:50:00,
2013-01-27 13:52:00,21.7,3.1,30.51,NW,325,1.0,2.0,44,0.00,,,0.00,Wunderground v.1.15,2013-01-27 18:52:00,
2013-01-27 13:53:00,21.8,3.2,30.51,NW,325,2.0,2.0,44,0.00,,,0.00,Wunderground v.1.15,2013-01-27 18:53:00,
2013-01-27 13:55:00,21.7,2.6,30.51,WNW,284,0.0,2.0,43,0.00,,,0.00,Wunderground v.1.15,2013-01-27 18:55:00,
2013-01-27 13:58:00,21.8,2.7,30.50,WNW,284,0.0,2.0,43,0.00,,,0.00,Wunderground v.1.15,2013-01-27 18:58:00,
2013-01-27 13:59:00,21.8,3.2,30.50,WNW,284,1.0,2.0,44,0.00,,,0.00,Wunderground v.1.15,2013-01-27 18:59:00,
2013-01-27 14:01:00,22.1,3.0,30.50,WNW,292,1.0,1.0,43,0.00,,,0.00,Wunderground v.1.15,2013-01-27 19:01:00,
2013-01-27 14:04:00,22.4,3.2,30.50,NNW,336,0.0,5.0,43,0.00,,,0.00,Wunderground v.1.15,2013-01-27 19:04:00,
2013-01-27 14:05:00,22.5,3.3,30.50,NNW,333,1.0,5.0,43,0.00,,,0.00,Wunderground v.1.15,2013-01-27 19:05:00,
2013-01-27 14:07:00,22.7,3.5,30.51,West,280,0.0,5.0,43,0.00,,,0.00,Wunderground v.1.15,2013-01-27 19:07:00,
2013-01-27 14:10:00,22.7,2.5,30.51,West,270,1.0,5.0,41,0.00,,,0.00,Wunderground v.1.15,2013-01-27 19:10:00,
2013-01-27 14:11:00,22.7,2.5,30.51,West,270,1.0,5.0,41,0.00,,,0.00,Wunderground v.1.15,2013-01-27 19:11:00,
2013-01-27 14:12:00,22.7,3.0,30.51,West,281,2.0,2.0,42,0.00,,,0.00,Wunderground v.1.15,2013-01-27 19:12:00,
2013-01-27 14:15:00,22.6,2.9,30.50,NW,323,3.0,5.0,42,0.00,,,0.00,Wunderground v.1.15,2013-01-27 19:15:00,
2013-01-27 14:16:00,22.6,2.9,30.50,NNW,331,2.0,5.0,42,0.00,,,0.00,Wunderground v.1.15,2013-01-27 19:16:00,
2013-01-27 14:17:00,22.5,2.3,30.50,NW,304,5.0,5.0,41,0.00,,,0.00,Wunderground v.1.15,2013-01-27 19:17:00,
2013-01-27 14:20:00,22.3,2.1,30.50,NW,314,0.0,5.0,41,0.00,,,0.00,Wunderground v.1.15,2013-01-27 19:20:00,
2013-01-27 14:22:00,22.4,2.2,30.50,NW,314,0.0,2.0,41,0.00,,,0.00,Wunderground v.1.15,2013-01-27 19:22:00,
2013-01-27 14:23:00,22.5,2.3,30.50,NW,314,0.0,2.0,41,0.00,,,0.00,Wunderground v.1.15,2013-01-27 19:23:00,
2013-01-27 14:27:00,22.9,3.2,30.50,NW,311,2.0,3.0,42,0.00,,,0.00,Wunderground v.1.15,2013-01-27 19:27:00,
2013-01-27 14:28:00,23.0,2.8,30.50,WNW,291,6.0,6.0,41,0.00,,,0.00,Wunderground v.1.15,2013-01-27 19:28:00,
2013-01-27 14:33:00,22.8,2.0,30.50,SW,223,4.0,4.0,40,0.00,,,0.00,Wunderground v.1.15,2013-01-27 19:33:00,
2013-01-27 14:34:00,22.7,2.0,30.50,WNW,283,2.0,4.0,40,0.00,,,0.00,Wunderground v.1.15,2013-01-27 19:34:00,
2013-01-27 14:36:00,22.7,2.5,30.50,WNW,302,2.0,6.0,41,0.00,,,0.00,Wunderground v.1.15,2013-01-27 19:36:00,
2013-01-27 14:38:00,22.7,2.5,30.50,WSW,251,2.0,6.0,41,0.00,,,0.00,Wunderground v.1.15,2013-01-27 19:38:00,
2013-01-27 14:39:00,22.8,2.6,30.50,WSW,251,1.0,6.0,41,0.00,,,0.00,Wunderground v.1.15,2013-01-27 19:39:00,
2013-01-27 14:41:00,22.9,2.7,30.50,West,263,2.0,6.0,41,0.00,,,0.00,Wunderground v.1.15,2013-01-27 19:41:00,
2013-01-27 14:42:00,22.8,2.0,30.50,WNW,292,1.0,2.0,40,0.00,,,0.00,Wunderground v.1.15,2013-01-27 19:42:00,
2013-01-27 14:45:00,22.8,2.0,30.50,WNW,288,4.0,5.0,40,0.00,,,0.00,Wunderground v.1.15,2013-01-27 19:45:00,
2013-01-27 14:46:00,22.8,2.0,30.50,West,271,3.0,5.0,40,0.00,,,0.00,Wunderground v.1.15,2013-01-27 19:46:00,
2013-01-27 14:47:00,22.8,2.6,30.50,WNW,291,0.0,5.0,41,0.00,,,0.00,Wunderground v.1.15,2013-01-27 19:47:00,
2013-01-27 14:51:00,22.9,2.7,30.50,SW,225,3.0,5.0,41,0.00,,,0.00,Wunderground v.1.15,2013-01-27 19:51:00,
2013-01-27 14:52:00,22.9,2.7,30.50,WNW,303,4.0,4.0,41,0.00,,,0.00,Wunderground v.1.15,2013-01-27 19:52:00,
2013-01-27 14:53:00,22.9,2.7,30.50,West,271,2.0,4.0,41,0.00,,,0.00,Wunderground v.1.15,2013-01-27 19:53:00,
2013-01-27 14:57:00,22.8,2.0,30.50,West,270,0.0,4.0,40,0.00,,,0.00,Wunderground v.1.15,2013-01-27 19:57:00,
2013-01-27 14:58:00,22.8,2.6,30.50,West,271,1.0,6.0,41,0.00,,,0.00,Wunderground v.1.15,2013-01-27 19:58:00,
2013-01-27 15:01:00,22.6,2.4,30.50,NW,309,1.0,6.0,41,0.00,,,0.00,Wunderground v.1.15,2013-01-27 20:01:00,
2013-01-27 15:03:00,22.6,2.9,30.50,NW,309,3.0,4.0,42,0.00,,,0.00,Wunderground v.1.15,2013-01-27 20:03:00,
2013-01-27 15:04:00,22.6,2.4,30.50,NW,314,2.0,7.0,41,0.00,,,0.00,Wunderground v.1.15,2013-01-27 20:04:00,
2013-01-27 15:05:00,22.6,2.9,30.50,NW,315,3.0,7.0,42,0.00,,,0.00,Wunderground v.1.15,2013-01-27 20:05:00,
2013-01-27 15:08:00,22.8,3.1,30.50,West,265,3.0,7.0,42,0.00,,,0.00,Wunderground v.1.15,2013-01-27 20:08:00,
2013-01-27 15:09:00,22.9,3.2,30.50,WSW,252,2.0,7.0,42,0.00,,,0.00,Wunderground v.1.15,2013-01-27 20:09:00,
2013-01-27 15:10:00,23.0,2.8,30.50,WNW,294,3.0,7.0,41,0.00,,,0.00,Wunderground v.1.15,2013-01-27 20:10:00,
2013-01-27 15:13:00,23.1,2.9,30.50,WSW,242,4.0,4.0,41,0.00,,,0.00,Wunderground v.1.15,2013-01-27 20:13:00,
2013-01-27 15:15:00,23.1,2.9,30.51,WNW,285,2.0,4.0,41,0.00,,,0.00,Wunderground v.1.15,2013-01-27 20:15:00,
2013-01-27 15:16:00,23.1,3.4,30.51,WNW,285,3.0,4.0,42,0.00,,,0.00,Wunderground v.1.15,2013-01-27 20:16:00,
2013-01-27 15:19:00,23.0,2.2,30.51,WNW,298,4.0,9.0,40,0.00,,,0.00,Wunderground v.1.15,2013-01-27 20:19:00,
2013-01-27 15:20:00,22.9,2.1,30.51,WSW,248,0.0,9.0,40,0.00,,,0.00,Wunderground v.1.15,2013-01-27 20:20:00,
2013-01-27 15:21:00,22.8,2.0,30.51,WNW,284,4.0,4.0,40,0.00,,,0.00,Wunderground v.1.15,2013-01-27 20:21:00,
2013-01-27 15:22:00,22.8,2.0,30.51,West,281,5.0,5.0,40,0.00,,,0.00,Wunderground v.1.15,2013-01-27 20:22:00,
2013-01-27 15:24:00,22.7,1.4,30.51,WNW,297,1.0,6.0,39,0.00,,,0.01,Wunderground v.1.15,2013-01-27 20:24:00,
2013-01-27 15:26:00,22.6,1.9,30.51,West,265,1.0,6.0,40,0.00,,,0.01,Wunderground v.1.15,2013-01-27 20:26:00,
2013-01-27 15:27:00,22.7,2.5,30.51,SSW,208,4.0,6.0,41,0.00,,,0.01,Wunderground v.1.15,2013-01-27 20:27:00,
2013-01-27 15:29:00,22.8,2.0,30.51,West,273,3.0,6.0,40,0.00,,,0.01,Wunderground v.1.15,2013-01-27 20:29:00,
2013-01-27 15:30:00,22.8,2.0,30.51,West,277,2.0,6.0,40,0.00,,,0.01,Wunderground v.1.15,2013-01-27 20:30:00,
2013-01-27 15:32:00,22.8,2.0,30.51,West,267,2.0,2.0,40,0.00,,,0.01,Wunderground v.1.15,2013-01-27 20:32:00,
2013-01-27 15:33:00,22.8,2.6,30.51,West,266,2.0,3.0,41,0.00,,,0.01,Wunderground v.1.15,2013-01-27 20:33:00,
2013-01-27 15:35:00,22.9,2.1,30.51,West,263,0.0,3.0,40,0.00,,,0.01,Wunderground v.1.15,2013-01-27 20:35:00,
2013-01-27 15:37:00,23.0,2.2,30.51,West,265,2.0,3.0,40,0.00,,,0.01,Wunderground v.1.15,2013-01-27 20:37:00,
2013-01-27 15:39:00,23.1,2.9,30.51,West,269,1.0,3.0,41,0.00,,,0.01,Wunderground v.1.15,2013-01-27 20:39:00,
2013-01-27 15:40:00,23.2,2.4,30.51,West,274,0.0,3.0,40,0.00,,,0.01,Wunderground v.1.15,2013-01-27 20:40:00,
2013-01-27 15:42:00,23.3,2.5,30.51,West,274,1.0,1.0,40,0.00,,,0.01,Wunderground v.1.15,2013-01-27 20:42:00,
2013-01-27 15:45:00,23.6,3.3,30.51,WNW,291,1.0,2.0,41,0.00,,,0.01,Wunderground v.1.15,2013-01-27 20:45:00,
2013-01-27 15:48:00,23.4,2.0,30.51,WNW,284,3.0,5.0,39,0.00,,,0.01,Wunderground v.1.15,2013-01-27 20:48:00,
2013-01-27 15:51:00,23.0,1.7,30.51,WNW,302,3.0,5.0,39,0.00,,,0.01,Wunderground v.1.15,2013-01-27 20:51:00,
2013-01-27 15:53:00,22.7,2.5,30.51,NW,306,0.0,2.0,41,0.00,,,0.01,Wunderground v.1.15,2013-01-27 20:53:00,
2013-01-27 15:56:00,22.4,2.2,30.52,WSW,256,3.0,5.0,41,0.00,,,0.01,Wunderground v.1.15,2013-01-27 20:56:00,
2013-01-27 15:57:00,22.2,2.0,30.52,WSW,256,0.0,5.0,41,0.00,,,0.01,Wunderground v.1.15,2013-01-27 20:57:00,
2013-01-27 16:00:00,22.0,3.4,30.52,WNW,284,0.0,5.0,44,0.00,,,0.01,Wunderground v.1.15,2013-01-27 21:00:00,
2013-01-27 16:01:00,22.0,3.4,30.52,West,279,4.0,5.0,44,0.00,,,0.01,Wunderground v.1.15,2013-01-27 21:01:00,
2013-01-27 16:02:00,21.9,2.8,30.52,WSW,248,1.0,2.0,43,0.00,,,0.01,Wunderground v.1.15,2013-01-27 21:02:00,
2013-01-27 16:04:00,21.8,2.7,30.52,WSW,256,2.0,4.0,43,0.00,,,0.01,Wunderground v.1.15,2013-01-27 21:04:00,
2013-01-27 16:07:00,21.7,2.6,30.52,WNW,298,1.0,4.0,43,0.00,,,0.01,Wunderground v.1.15,2013-01-27 21:07:00,
2013-01-27 16:08:00,21.6,2.0,30.52,West,260,1.0,4.0,42,0.00,,,0.01,Wunderground v.1.15,2013-01-27 21:08:00,
2013-01-27 16:09:00,21.6,2.0,30.52,West,260,1.0,4.0,42,0.00,,,0.01,Wunderground v.1.15,2013-01-27 21:09:00,
2013-01-27 16:12:00,21.4,2.3,30.52,WNW,282,0.0,2.0,43,0.00,,,0.01,Wunderground v.1.15,2013-01-27 21:12:00,
2013-01-27 16:13:00,21.3,2.2,30.52,WNW,282,1.0,2.0,43,0.00,,,0.01,Wunderground v.1.15,2013-01-27 21:13:00,
2013-01-27 16:14:00,21.3,2.2,30.52,WNW,293,0.0,3.0,43,0.00,,,0.01,Wunderground v.1.15,2013-01-27 21:14:00,
2013-01-27 16:17:00,21.2,1.6,30.52,West,278,3.0,6.0,42,0.00,,,0.01,Wunderground v.1.15,2013-01-27 21:17:00,
2013-01-27 16:19:00,21.1,1.6,30.52,WNW,289,2.0,6.0,42,0.00,,,0.01,Wunderground v.1.15,2013-01-27 21:19:00,
2013-01-27 16:20:00,21.1,2.1,30.52,WNW,286,2.0,6.0,43,0.00,,,0.01,Wunderground v.1.15,2013-01-27 21:20:00,
2013-01-27 16:23:00,21.1,2.1,30.52,WNW,286,0.0,2.0,43,0.00,,,0.01,Wunderground v.1.15,2013-01-27 21:23:00,
2013-01-27 16:24:00,21.1,2.1,30.52,West,279,3.0,3.0,43,0.00,,,0.01,Wunderground v.1.15,2013-01-27 21:24:00,
2013-01-27 16:27:00,21.0,3.4,30.52,West,279,0.0,3.0,46,0.00,,,0.01,Wunderground v.1.15,2013-01-27 21:27:00,
2013-01-27 16:28:00,20.9,3.3,30.52,West,281,0.0,3.0,46,0.00,,,0.01,Wunderground v.1.15,2013-01-27 21:28:00,
2013-01-27 16:29:00,20.8,3.2,30.52,West,281,2.0,3.0,46,0.00,,,0.01,Wunderground v.1.15,2013-01-27 21:29:00,
2013-01-27 16:32:00,20.7,2.7,30.52,WNW,286,0.0,1.0,45,0.00,,,0.01,Wunderground v.1.15,2013-01-27 21:32:00,
2013-01-27 16:33:00,20.7,2.7,30.52,WNW,286,0.0,1.0,45,0.00,,,0.01,Wunderground v.1.15,2013-01-27 21:33:00,
2013-01-27 16:35:00,20.6,3.1,30.52,WNW,286,0.0,2.0,46,0.00,,,0.01,Wunderground v.1.15,2013-01-27 21:35:00,
2013-01-27 16:36:00,20.5,3.0,30.51,WNW,286,0.0,2.0,46,0.00,,,0.01,Wunderground v.1.15,2013-01-27 21:36:00,
2013-01-27 16:38:00,20.5,3.4,30.51,WNW,286,0.0,2.0,47,0.00,,,0.01,Wunderground v.1.15,2013-01-27 21:38:00,
2013-01-27 16:39:00,20.4,2.9,30.51,WNW,286,1.0,2.0,46,0.00,,,0.01,Wunderground v.1.15,2013-01-27 21:39:00,
2013-01-27 16:40:00,20.4,2.4,30.51,West,273,0.0,2.0,45,0.00,,,0.01,Wunderground v.1.15,2013-01-27 21:40:00,
2013-01-27 16:41:00,20.3,3.2,30.52,West,273,0.0,0.0,47,0.00,,,0.01,Wunderground v.1.15,2013-01-27 21:41:00,
2013-01-27 16:43:00,20.2,3.6,30.52,West,273,0.0,0.0,48,0.00,,,0.01,Wunderground v.1.15,2013-01-27 21:43:00,
2013-01-27 16:44:00,20.2,4.1,30.52,West,273,0.0,0.0,49,0.00,,,0.01,Wunderground v.1.15,2013-01-27 21:44:00,
2013-01-27 16:46:00,20.0,3.4,30.52,West,279,0.0,2.0,48,0.00,,,0.01,Wunderground v.1.15,2013-01-27 21:46:00,
2013-01-27 16:47:00,20.0,3.4,30.52,West,279,0.0,2.0,48,0.00,,,0.01,Wunderground v.1.15,2013-01-27 21:47:00,
2013-01-27 16:49:00,19.9,2.9,30.52,West,275,0.0,3.0,47,0.00,,,0.01,Wunderground v.1.15,2013-01-27 21:49:00,
2013-01-27 16:50:00,19.8,2.8,30.52,WNW,284,1.0,3.0,47,0.00,,,0.01,Wunderground v.1.15,2013-01-27 21:50:00,
2013-01-27 16:52:00,19.7,3.2,30.52,WNW,284,0.0,1.0,48,0.00,,,0.01,Wunderground v.1.15,2013-01-27 21:52:00,
2013-01-27 16:53:00,19.7,3.2,30.52,WNW,284,0.0,1.0,48,0.00,,,0.01,Wunderground v.1.15,2013-01-27 21:53:00,
2013-01-27 16:54:00,19.6,3.1,30.52,WNW,284,0.0,1.0,48,0.00,,,0.01,Wunderground v.1.15,2013-01-27 21:54:00,
2013-01-27 16:55:00,19.5,3.0,30.52,WNW,284,0.0,1.0,48,0.00,,,0.01,Wunderground v.1.15,2013-01-27 21:55:00,
2013-01-27 16:58:00,19.4,3.3,30.52,WNW,284,0.0,1.0,49,0.00,,,0.01,Wunderground v.1.15,2013-01-27 21:58:00,
2013-01-27 16:59:00,19.3,3.7,30.52,NW,324,0.0,1.0,50,0.00,,,0.01,Wunderground v.1.15,2013-01-27 21:59:00,
2013-01-27 17:02:00,19.0,3.4,30.52,NW,309,0.0,1.0,50,0.00,,,0.01,Wunderground v.1.15,2013-01-27 22:02:00,
2013-01-27 17:03:00,18.9,3.3,30.52,NW,309,0.0,1.0,50,0.00,,,0.01,Wunderground v.1.15,2013-01-27 22:03:00,
2013-01-27 17:04:00,18.8,4.1,30.52,NW,309,0.0,1.0,52,0.00,,,0.01,Wunderground v.1.15,2013-01-27 22:04:00,
2013-01-27 17:05:00,18.8,4.1,30.53,NW,309,0.0,1.0,52,0.00,,,0.01,Wunderground v.1.15,2013-01-27 22:05:00,
2013-01-27 17:07:00,18.7,4.0,30.53,NW,309,0.0,1.0,52,0.00,,,0.01,Wunderground v.1.15,2013-01-27 22:07:00,
2013-01-27 17:10:00,18.5,3.8,30.52,WNW,293,0.0,2.0,52,0.00,,,0.01,Wunderground v.1.15,2013-01-27 22:10:00,
2013-01-27 17:12:00,18.4,3.7,30.52,WNW,293,0.0,0.0,52,0.00,,,0.01,Wunderground v.1.15,2013-01-27 22:12:00,
2013-01-27 17:16:00,18.1,3.4,30.52,WNW,293,1.0,1.0,52,0.00,,,0.01,Wunderground v.1.15,2013-01-27 22:16:00,
2013-01-27 17:18:00,18.1,3.4,30.52,WNW,284,4.0,4.0,52,0.00,,,0.01,Wunderground v.1.15,2013-01-27 22:18:00,
2013-01-27 17:23:00,17.9,3.6,30.52,West,274,0.0,0.0,53,0.00,,,0.01,Wunderground v.1.15,2013-01-27 22:23:00,
2013-01-27 17:24:00,17.8,3.5,30.52,West,274,0.0,0.0,53,0.00,,,0.01,Wunderground v.1.15,2013-01-27 22:24:00,
2013-01-27 17:28:00,17.5,3.7,30.52,West,274,0.0,0.0,54,0.00,,,0.01,Wunderground v.1.15,2013-01-27 22:28:00,
2013-01-27 17:30:00,17.4,3.6,30.52,West,274,0.0,0.0,54,0.00,,,0.01,Wunderground v.1.15,2013-01-27 22:30:00,
2013-01-27 17:31:00,17.3,3.9,30.52,West,274,0.0,0.0,55,0.00,,,0.01,Wunderground v.1.15,2013-01-27 22:31:00,
2013-01-27 17:34:00,17.1,4.1,30.52,West,274,0.0,0.0,56,0.00,,,0.01,Wunderground v.1.15,2013-01-27 22:34:00,
2013-01-27 17:36:00,16.9,3.9,30.52,West,274,0.0,0.0,56,0.00,,,0.01,Wunderground v.1.15,2013-01-27 22:36:00,
2013-01-27 17:38:00,16.8,3.8,30.52,West,274,0.0,0.0,56,0.00,,,0.01,Wunderground v.1.15,2013-01-27 22:38:00,
2013-01-27 17:39:00,16.7,3.7,30.52,West,274,0.0,0.0,56,0.00,,,0.01,Wunderground v.1.15,2013-01-27 22:39:00,
2013-01-27 17:41:00,16.4,3.8,30.52,West,274,0.0,0.0,57,0.00,,,0.01,Wunderground v.1.15,2013-01-27 22:41:00,
2013-01-27 17:42:00,16.4,3.8,30.52,West,274,0.0,0.0,57,0.00,,,0.01,Wunderground v.1.15,2013-01-27 22:42:00,
2013-01-27 17:45:00,16.2,4.0,30.52,West,274,0.0,0.0,58,0.00,,,0.01,Wunderground v.1.15,2013-01-27 22:45:00,
2013-01-27 17:47:00,16.0,3.8,30.52,West,274,0.0,0.0,58,0.00,,,0.01,Wunderground v.1.15,2013-01-27 22:47:00,
2013-01-27 17:48:00,15.9,4.1,30.52,West,274,0.0,0.0,59,0.00,,,0.01,Wunderground v.1.15,2013-01-27 22:48:00,
2013-01-27 17:50:00,15.8,3.6,30.52,West,274,0.0,0.0,58,0.00,,,0.01,Wunderground v.1.15,2013-01-27 22:50:00,
2013-01-27 17:51:00,15.8,3.6,30.52,West,274,0.0,0.0,58,0.00,,,0.01,Wunderground v.1.15,2013-01-27 22:51:00,
2013-01-27 17:53:00,15.6,3.8,30.52,West,274,0.0,0.0,59,0.00,,,0.01,Wunderground v.1.15,2013-01-27 22:53:00,
2013-01-27 17:56:00,15.4,4.0,30.52,West,274,0.0,0.0,60,0.00,,,0.01,Wunderground v.1.15,2013-01-27 22:56:00,
2013-01-27 17:58:00,15.3,3.9,30.52,West,274,0.0,0.0,60,0.00,,,0.01,Wunderground v.1.15,2013-01-27 22:58:00,
2013-01-27 17:59:00,15.3,3.9,30.52,West,274,0.0,0.0,60,0.00,,,0.01,Wunderground v.1.15,2013-01-27 22:59:00,
2013-01-27 18:00:00,15.2,3.8,30.52,West,274,0.0,0.0,60,0.00,,,0.01,Wunderground v.1.15,2013-01-27 23:00:00,
2013-01-27 18:02:00,15.1,3.7,30.52,West,274,0.0,0.0,60,0.00,,,0.01,Wunderground v.1.15,2013-01-27 23:02:00,
2013-01-27 18:03:00,15.0,3.6,30.52,West,274,0.0,0.0,60,0.00,,,0.01,Wunderground v.1.15,2013-01-27 23:03:00,
2013-01-27 18:04:00,15.0,4.0,30.52,West,274,0.0,0.0,61,0.00,,,0.01,Wunderground v.1.15,2013-01-27 23:04:00,
2013-01-27 18:06:00,14.8,3.8,30.52,West,274,0.0,0.0,61,0.00,,,0.01,Wunderground v.1.15,2013-01-27 23:06:00,
2013-01-27 18:08:00,14.6,3.6,30.52,West,274,0.0,0.0,61,0.00,,,0.01,Wunderground v.1.15,2013-01-27 23:08:00,
2013-01-27 18:09:00,14.6,3.9,30.52,West,274,0.0,0.0,62,0.00,,,0.01,Wunderground v.1.15,2013-01-27 23:09:00,
2013-01-27 18:10:00,14.5,3.8,30.52,West,274,0.0,0.0,62,0.00,,,0.01,Wunderground v.1.15,2013-01-27 23:10:00,
2013-01-27 18:13:00,14.3,3.6,30.53,West,274,0.0,0.0,62,0.00,,,0.01,Wunderground v.1.15,2013-01-27 23:13:00,
2013-01-27 18:14:00,14.3,3.6,30.53,West,274,0.0,0.0,62,0.00,,,0.01,Wunderground v.1.15,2013-01-27 23:14:00,
2013-01-27 18:15:00,14.2,3.6,30.53,West,274,0.0,0.0,62,0.00,,,0.01,Wunderground v.1.15,2013-01-27 23:15:00,
2013-01-27 18:18:00,14.1,3.5,30.53,West,274,0.0,0.0,62,0.00,,,0.01,Wunderground v.1.15,2013-01-27 23:18:00,
2013-01-27 18:19:00,14.1,3.5,30.53,West,274,0.0,0.0,62,0.00,,,0.01,Wunderground v.1.15,2013-01-27 23:19:00,
2013-01-27 18:20:00,14.0,3.4,30.53,West,274,0.0,0.0,62,0.00,,,0.01,Wunderground v.1.15,2013-01-27 23:20:00,
2013-01-27 18:21:00,13.9,3.3,30.53,West,274,0.0,0.0,62,0.00,,,0.01,Wunderground v.1.15,2013-01-27 23:21:00,
2013-01-27 18:24:00,13.8,3.2,30.53,West,274,0.0,0.0,62,0.00,,,0.01,Wunderground v.1.15,2013-01-27 23:24:00,
2013-01-27 18:26:00,13.6,3.3,30.53,West,274,0.0,0.0,63,0.00,,,0.01,Wunderground v.1.15,2013-01-27 23:26:00,
2013-01-27 18:27:00,13.6,3.3,30.53,West,274,0.0,0.0,63,0.00,,,0.01,Wunderground v.1.15,2013-01-27 23:27:00,
2013-01-27 18:29:00,13.6,3.3,30.53,West,274,0.0,0.0,63,0.00,,,0.01,Wunderground v.1.15,2013-01-27 23:29:00,
2013-01-27 18:31:00,13.5,3.2,30.54,West,275,0.0,2.0,63,0.00,,,0.01,Wunderground v.1.15,2013-01-27 23:31:00,
2013-01-27 18:33:00,13.5,3.6,30.54,West,275,0.0,0.0,64,0.00,,,0.01,Wunderground v.1.15,2013-01-27 23:33:00,
2013-01-27 18:34:00,13.4,3.5,30.54,West,275,0.0,0.0,64,0.00,,,0.01,Wunderground v.1.15,2013-01-27 23:34:00,
2013-01-27 18:35:00,13.4,3.8,30.54,West,275,0.0,0.0,65,0.00,,,0.01,Wunderground v.1.15,2013-01-27 23:35:00,
2013-01-27 18:36:00,13.3,3.7,30.54,West,275,0.0,0.0,65,0.00,,,0.01,Wunderground v.1.15,2013-01-27 23:36:00,
2013-01-27 18:40:00,13.2,3.6,30.54,West,275,0.0,0.0,65,0.00,,,0.01,Wunderground v.1.15,2013-01-27 23:40:00,
2013-01-27 18:41:00,13.2,3.6,30.54,West,275,0.0,0.0,65,0.00,,,0.01,Wunderground v.1.15,2013-01-27 23:41:00,
2013-01-27 18:45:00,13.0,3.8,30.54,West,275,0.0,0.0,66,0.00,,,0.01,Wunderground v.1.15,2013-01-27 23:45:00,
2013-01-27 18:46:00,13.0,3.8,30.54,West,275,0.0,0.0,66,0.00,,,0.01,Wunderground v.1.15,2013-01-27 23:46:00,
2013-01-27 18:47:00,12.9,3.7,30.54,West,275,0.0,0.0,66,0.00,,,0.01,Wunderground v.1.15,2013-01-27 23:47:00,
2013-01-27 18:48:00,12.8,3.6,30.54,West,275,0.0,0.0,66,0.00,,,0.01,Wunderground v.1.15,2013-01-27 23:48:00,
2013-01-27 18:51:00,12.7,3.5,30.54,West,275,0.0,0.0,66,0.00,,,0.01,Wunderground v.1.15,2013-01-27 23:51:00,
2013-01-27 18:52:00,12.6,3.4,30.54,West,275,0.0,0.0,66,0.00,,,0.01,Wunderground v.1.15,2013-01-27 23:52:00,
2013-01-27 18:53:00,12.6,3.4,30.54,West,275,0.0,0.0,66,0.00,,,0.01,Wunderground v.1.15,2013-01-27 23:53:00,
2013-01-27 18:55:00,12.5,3.3,30.54,SW,219,0.0,1.0,66,0.00,,,0.01,Wunderground v.1.15,2013-01-27 23:55:00,
2013-01-27 18:58:00,12.4,3.2,30.54,SW,219,0.0,1.0,66,0.00,,,0.01,Wunderground v.1.15,2013-01-27 23:58:00,
2013-01-27 18:59:00,12.3,3.1,30.54,SW,219,0.0,1.0,66,0.00,,,0.01,Wunderground v.1.15,2013-01-27 23:59:00,
2013-01-27 19:01:00,12.2,3.0,30.54,SW,219,0.0,0.0,66,0.00,,,0.01,Wunderground v.1.15,2013-01-28 00:01:00,
2013-01-27 19:03:00,12.2,3.0,30.54,SW,219,0.0,0.0,66,0.00,,,0.01,Wunderground v.1.15,2013-01-28 00:03:00,
2013-01-27 19:04:00,12.1,3.2,30.54,SW,219,0.0,0.0,67,0.00,,,0.01,Wunderground v.1.15,2013-01-28 00:04:00,
2013-01-27 19:07:00,11.9,3.0,30.54,SW,219,0.0,0.0,67,0.00,,,0.01,Wunderground v.1.15,2013-01-28 00:07:00,
2013-01-27 19:08:00,11.9,3.0,30.53,SW,219,0.0,0.0,67,0.00,,,0.01,Wunderground v.1.15,2013-01-28 00:08:00,
2013-01-27 19:10:00,11.8,2.9,30.53,SW,219,0.0,0.0,67,0.00,,,0.01,Wunderground v.1.15,2013-01-28 00:10:00,
2013-01-27 19:11:00,11.7,2.8,30.53,SW,219,0.0,0.0,67,0.00,,,0.01,Wunderground v.1.15,2013-01-28 00:11:00,
2013-01-27 19:12:00,11.7,2.8,30.53,SW,219,0.0,0.0,67,0.00,,,0.01,Wunderground v.1.15,2013-01-28 00:12:00,
2013-01-27 19:14:00,11.6,2.8,30.53,SW,219,0.0,0.0,67,0.00,,,0.01,Wunderground v.1.15,2013-01-28 00:14:00,
2013-01-27 19:17:00,11.6,2.8,30.52,SW,219,0.0,0.0,67,0.00,,,0.01,Wunderground v.1.15,2013-01-28 00:17:00,
2013-01-27 19:19:00,11.5,2.7,30.52,SW,219,0.0,0.0,67,0.00,,,0.01,Wunderground v.1.15,2013-01-28 00:19:00,
2013-01-27 19:20:00,11.5,2.7,30.52,SW,219,0.0,0.0,67,0.00,,,0.01,Wunderground v.1.15,2013-01-28 00:20:00,
2013-01-27 19:22:00,11.5,2.7,30.52,SW,219,0.0,0.0,67,0.00,,,0.01,Wunderground v.1.15,2013-01-28 00:22:00,
2013-01-27 19:24:00,11.5,2.3,30.52,SW,219,0.0,0.0,66,0.00,,,0.01,Wunderground v.1.15,2013-01-28 00:24:00,
2013-01-27 19:25:00,11.6,2.4,30.52,SW,219,0.0,0.0,66,0.00,,,0.01,Wunderground v.1.15,2013-01-28 00:25:00,
2013-01-27 19:27:00,11.7,2.5,30.52,SW,219,0.0,0.0,66,0.00,,,0.01,Wunderground v.1.15,2013-01-28 00:27:00,
2013-01-27 19:28:00,11.7,2.5,30.52,SW,219,0.0,0.0,66,0.00,,,0.01,Wunderground v.1.15,2013-01-28 00:28:00,
2013-01-27 19:30:00,11.7,2.5,30.52,SW,219,0.0,0.0,66,0.00,,,0.01,Wunderground v.1.15,2013-01-28 00:30:00,
2013-01-27 19:31:00,11.7,2.8,30.52,SW,219,0.0,0.0,67,0.00,,,0.01,Wunderground v.1.15,2013-01-28 00:31:00,
2013-01-27 19:33:00,11.6,2.8,30.52,SW,219,0.0,0.0,67,0.00,,,0.01,Wunderground v.1.15,2013-01-28 00:33:00,
2013-01-27 19:34:00,11.6,2.8,30.52,SW,219,0.0,0.0,67,0.00,,,0.01,Wunderground v.1.15,2013-01-28 00:34:00,
2013-01-27 19:36:00,11.6,2.8,30.52,SW,219,0.0,0.0,67,0.00,,,0.01,Wunderground v.1.15,2013-01-28 00:36:00,
2013-01-27 19:37:00,11.5,2.7,30.52,SW,219,0.0,0.0,67,0.00,,,0.01,Wunderground v.1.15,2013-01-28 00:37:00,
2013-01-27 19:38:00,11.5,2.7,30.52,SW,219,0.0,0.0,67,0.00,,,0.01,Wunderground v.1.15,2013-01-28 00:38:00,
2013-01-27 19:39:00,11.4,2.6,30.52,SW,219,0.0,0.0,67,0.00,,,0.01,Wunderground v.1.15,2013-01-28 00:39:00,
2013-01-27 19:42:00,11.2,2.4,30.52,SW,219,0.0,0.0,67,0.00,,,0.01,Wunderground v.1.15,2013-01-28 00:42:00,
2013-01-27 19:43:00,11.2,2.4,30.52,SW,219,0.0,0.0,67,0.00,,,0.01,Wunderground v.1.15,2013-01-28 00:43:00,
2013-01-27 19:44:00,11.1,2.3,30.52,SW,219,0.0,0.0,67,0.00,,,0.01,Wunderground v.1.15,2013-01-28 00:44:00,
2013-01-27 19:45:00,11.1,2.3,30.52,SW,219,0.0,0.0,67,0.00,,,0.01,Wunderground v.1.15,2013-01-28 00:45:00,
2013-01-27 19:48:00,10.9,2.1,30.52,SW,219,0.0,0.0,67,0.00,,,0.01,Wunderground v.1.15,2013-01-28 00:48:00,
2013-01-27 19:49:00,10.9,2.4,30.52,SW,219,0.0,0.0,68,0.00,,,0.01,Wunderground v.1.15,2013-01-28 00:49:00,
2013-01-27 19:51:00,10.8,2.3,30.52,SW,219,0.0,0.0,68,0.00,,,0.01,Wunderground v.1.15,2013-01-28 00:51:00,
2013-01-27 19:53:00,10.7,2.2,30.52,SW,219,0.0,0.0,68,0.00,,,0.01,Wunderground v.1.15,2013-01-28 00:53:00,
2013-01-27 19:54:00,10.7,2.2,30.52,SW,219,0.0,0.0,68,0.00,,,0.01,Wunderground v.1.15,2013-01-28 00:54:00,
2013-01-27 19:56:00,10.6,2.1,30.52,SW,219,0.0,0.0,68,0.00,,,0.01,Wunderground v.1.15,2013-01-28 00:56:00,
2013-01-27 19:57:00,10.6,2.1,30.52,SW,219,0.0,0.0,68,0.00,,,0.01,Wunderground v.1.15,2013-01-28 00:57:00,
2013-01-27 19:59:00,10.6,2.4,30.52,SW,219,0.0,0.0,69,0.00,,,0.01,Wunderground v.1.15,2013-01-28 00:59:00,
2013-01-27 20:00:00,10.6,2.4,30.52,SW,219,0.0,0.0,69,0.00,,,0.01,Wunderground v.1.15,2013-01-28 01:00:00,
2013-01-27 20:02:00,10.5,2.3,30.52,SW,219,0.0,0.0,69,0.00,,,0.01,Wunderground v.1.15,2013-01-28 01:02:00,
2013-01-27 20:03:00,10.5,2.3,30.52,SW,219,0.0,0.0,69,0.00,,,0.01,Wunderground v.1.15,2013-01-28 01:03:00,
2013-01-27 20:05:00,10.4,2.2,30.52,SW,219,0.0,0.0,69,0.00,,,0.01,Wunderground v.1.15,2013-01-28 01:05:00,
2013-01-27 20:07:00,10.3,2.1,30.52,SW,219,0.0,0.0,69,0.00,,,0.01,Wunderground v.1.15,2013-01-28 01:07:00,
2013-01-27 20:08:00,10.3,2.1,30.52,SW,219,0.0,0.0,69,0.00,,,0.01,Wunderground v.1.15,2013-01-28 01:08:00,
2013-01-27 20:09:00,10.3,2.1,30.52,SW,219,0.0,0.0,69,0.00,,,0.01,Wunderground v.1.15,2013-01-28 01:09:00,
2013-01-27 20:10:00,10.3,2.1,30.51,SW,219,0.0,0.0,69,0.00,,,0.01,Wunderground v.1.15,2013-01-28 01:10:00,
2013-01-27 20:13:00,10.3,2.1,30.51,SW,219,0.0,0.0,69,0.00,,,0.01,Wunderground v.1.15,2013-01-28 01:13:00,
2013-01-27 20:15:00,10.3,2.1,30.52,SW,219,0.0,0.0,69,0.00,,,0.01,Wunderground v.1.15,2013-01-28 01:15:00,
2013-01-27 20:16:00,10.3,2.4,30.52,SW,219,0.0,0.0,70,0.00,,,0.01,Wunderground v.1.15,2013-01-28 01:16:00,
2013-01-27 20:20:00,10.2,2.4,30.52,SW,219,0.0,0.0,70,0.00,,,0.01,Wunderground v.1.15,2013-01-28 01:20:00,
2013-01-27 20:21:00,10.1,2.3,30.52,SW,219,0.0,0.0,70,0.00,,,0.01,Wunderground v.1.15,2013-01-28 01:21:00,
2013-01-27 20:23:00,10.1,2.3,30.52,SW,219,0.0,0.0,70,0.00,,,0.01,Wunderground v.1.15,2013-01-28 01:23:00,
2013-01-27 20:26:00,10.0,2.2,30.52,SW,219,0.0,0.0,70,0.00,,,0.01,Wunderground v.1.15,2013-01-28 01:26:00,
2013-01-27 20:29:00,10.0,2.2,30.52,SW,219,0.0,0.0,70,0.00,,,0.01,Wunderground v.1.15,2013-01-28 01:29:00,
2013-01-27 20:31:00,10.0,2.5,30.52,SW,219,0.0,0.0,71,0.00,,,0.01,Wunderground v.1.15,2013-01-28 01:31:00,
2013-01-27 20:32:00,10.0,2.5,30.52,SW,219,0.0,0.0,71,0.00,,,0.01,Wunderground v.1.15,2013-01-28 01:32:00,
2013-01-27 20:34:00,10.1,2.6,30.52,SW,219,0.0,0.0,71,0.00,,,0.01,Wunderground v.1.15,2013-01-28 01:34:00,
2013-01-27 20:36:00,10.1,2.9,30.52,SW,219,0.0,0.0,72,0.00,,,0.01,Wunderground v.1.15,2013-01-28 01:36:00,
2013-01-27 20:38:00,10.2,3.0,30.52,SW,219,0.0,0.0,72,0.00,,,0.01,Wunderground v.1.15,2013-01-28 01:38:00,
2013-01-27 20:39:00,10.2,3.0,30.52,SW,219,0.0,0.0,72,0.00,,,0.01,Wunderground v.1.15,2013-01-28 01:39:00,
2013-01-27 20:40:00,10.2,3.0,30.52,SW,219,0.0,0.0,72,0.00,,,0.01,Wunderground v.1.15,2013-01-28 01:40:00,
2013-01-27 20:42:00,10.1,2.9,30.51,SW,219,0.0,0.0,72,0.00,,,0.01,Wunderground v.1.15,2013-01-28 01:42:00,
2013-01-27 20:44:00,10.1,2.9,30.51,SW,219,0.0,0.0,72,0.00,,,0.01,Wunderground v.1.15,2013-01-28 01:44:00,
2013-01-27 20:45:00,10.1,2.9,30.51,SW,219,0.0,0.0,72,0.00,,,0.01,Wunderground v.1.15,2013-01-28 01:45:00,
2013-01-27 20:47:00,10.0,2.8,30.51,SW,219,0.0,0.0,72,0.00,,,0.01,Wunderground v.1.15,2013-01-28 01:47:00,
2013-01-27 20:48:00,10.0,2.8,30.51,SW,219,0.0,0.0,72,0.00,,,0.01,Wunderground v.1.15,2013-01-28 01:48:00,
2013-01-27 20:50:00,10.0,2.8,30.51,SW,219,0.0,0.0,72,0.00,,,0.01,Wunderground v.1.15,2013-01-28 01:50:00,
2013-01-27 20:51:00,10.0,2.8,30.51,SW,219,0.0,0.0,72,0.00,,,0.01,Wunderground v.1.15,2013-01-28 01:51:00,
2013-01-27 20:54:00,10.0,2.8,30.51,SW,219,0.0,0.0,72,0.00,,,0.01,Wunderground v.1.15,2013-01-28 01:54:00,
2013-01-27 20:55:00,10.0,2.8,30.51,SW,219,0.0,0.0,72,0.00,,,0.01,Wunderground v.1.15,2013-01-28 01:55:00,
2013-01-27 20:56:00,10.0,2.8,30.51,SW,219,0.0,0.0,72,0.00,,,0.01,Wunderground v.1.15,2013-01-28 01:56:00,
2013-01-27 20:59:00,9.9,2.7,30.51,SW,219,0.0,0.0,72,0.00,,,0.01,Wunderground v.1.15,2013-01-28 01:59:00,
2013-01-27 21:01:00,9.8,2.6,30.51,SW,219,0.0,0.0,72,0.00,,,0.01,Wunderground v.1.15,2013-01-28 02:01:00,
2013-01-27 21:05:00,9.7,2.5,30.51,SW,219,0.0,0.0,72,0.00,,,0.01,Wunderground v.1.15,2013-01-28 02:05:00,
2013-01-27 21:06:00,9.7,2.5,30.51,SW,219,0.0,0.0,72,0.00,,,0.01,Wunderground v.1.15,2013-01-28 02:06:00,
2013-01-27 21:07:00,9.6,2.4,30.51,SW,219,0.0,0.0,72,0.00,,,0.01,Wunderground v.1.15,2013-01-28 02:07:00,
2013-01-27 21:08:00,9.6,2.4,30.51,SW,219,0.0,0.0,72,0.00,,,0.01,Wunderground v.1.15,2013-01-28 02:08:00,
2013-01-27 21:12:00,9.5,2.3,30.51,SW,219,0.0,0.0,72,0.00,,,0.01,Wunderground v.1.15,2013-01-28 02:12:00,
2013-01-27 21:13:00,9.4,2.5,30.51,SW,219,0.0,0.0,73,0.00,,,0.01,Wunderground v.1.15,2013-01-28 02:13:00,
2013-01-27 21:18:00,9.3,2.4,30.52,SW,219,0.0,0.0,73,0.00,,,0.01,Wunderground v.1.15,2013-01-28 02:18:00,
2013-01-27 21:19:00,9.3,2.4,30.52,SW,219,0.0,0.0,73,0.00,,,0.01,Wunderground v.1.15,2013-01-28 02:19:00,
2013-01-27 21:20:00,9.3,2.4,30.52,SW,219,0.0,0.0,73,0.00,,,0.01,Wunderground v.1.15,2013-01-28 02:20:00,
2013-01-27 21:24:00,9.2,2.3,30.52,SW,219,0.0,0.0,73,0.00,,,0.01,Wunderground v.1.15,2013-01-28 02:24:00,
2013-01-27 21:25:00,9.1,2.2,30.52,SW,219,0.0,0.0,73,0.00,,,0.01,Wunderground v.1.15,2013-01-28 02:25:00,
2013-01-27 21:29:00,9.0,2.1,30.52,SW,219,0.0,0.0,73,0.00,,,0.01,Wunderground v.1.15,2013-01-28 02:29:00,
2013-01-27 21:30:00,9.0,2.1,30.52,SW,219,0.0,0.0,73,0.00,,,0.01,Wunderground v.1.15,2013-01-28 02:30:00,
2013-01-27 21:31:00,9.0,2.1,30.52,SW,219,0.0,0.0,73,0.00,,,0.01,Wunderground v.1.15,2013-01-28 02:31:00,
2013-01-27 21:32:00,9.0,2.1,30.52,SW,219,0.0,0.0,73,0.00,,,0.01,Wunderground v.1.15,2013-01-28 02:32:00,
2013-01-27 21:36:00,8.8,2.2,30.51,SW,219,0.0,0.0,74,0.00,,,0.01,Wunderground v.1.15,2013-01-28 02:36:00,
2013-01-27 21:37:00,8.8,2.2,30.51,SW,219,0.0,0.0,74,0.00,,,0.01,Wunderground v.1.15,2013-01-28 02:37:00,
2013-01-27 21:38:00,8.7,2.1,30.51,SW,219,0.0,0.0,74,0.00,,,0.01,Wunderground v.1.15,2013-01-28 02:38:00,
2013-01-27 21:42:00,8.7,2.4,30.51,SW,219,0.0,0.0,75,0.00,,,0.01,Wunderground v.1.15,2013-01-28 02:42:00,
2013-01-27 21:43:00,8.7,2.4,30.51,SW,219,0.0,0.0,75,0.00,,,0.01,Wunderground v.1.15,2013-01-28 02:43:00,
2013-01-27 21:48:00,8.6,2.3,30.51,SW,219,0.0,0.0,75,0.00,,,0.01,Wunderground v.1.15,2013-01-28 02:48:00,
2013-01-27 21:49:00,8.6,2.3,30.51,SW,219,0.0,0.0,75,0.00,,,0.01,Wunderground v.1.15,2013-01-28 02:49:00,
2013-01-27 21:51:00,8.5,2.2,30.52,SW,219,0.0,0.0,75,0.00,,,0.01,Wunderground v.1.15,2013-01-28 02:51:00,
2013-01-27 21:54:00,8.4,2.1,30.52,SW,219,0.0,0.0,75,0.00,,,0.01,Wunderground v.1.15,2013-01-28 02:54:00,
2013-01-27 21:55:00,8.4,2.1,30.52,SW,219,0.0,0.0,75,0.00,,,0.01,Wunderground v.1.15,2013-01-28 02:55:00,
2013-01-27 21:58:00,8.3,2.0,30.52,SW,219,0.0,0.0,75,0.00,,,0.01,Wunderground v.1.15,2013-01-28 02:58:00,
2013-01-27 21:59:00,8.2,1.9,30.52,SW,219,0.0,0.0,75,0.00,,,0.01,Wunderground v.1.15,2013-01-28 02:59:00,
2013-01-27 22:01:00,8.1,1.8,30.52,SW,219,0.0,0.0,75,0.00,,,0.01,Wunderground v.1.15,2013-01-28 03:01:00,
2013-01-27 22:03:00,8.1,1.8,30.52,SW,219,0.0,0.0,75,0.00,,,0.01,Wunderground v.1.15,2013-01-28 03:03:00,
2013-01-27 22:04:00,8.1,1.8,30.52,SW,219,0.0,0.0,75,0.00,,,0.01,Wunderground v.1.15,2013-01-28 03:04:00,
2013-01-27 22:07:00,8.1,1.8,30.52,SW,219,0.0,0.0,75,0.00,,,0.01,Wunderground v.1.15,2013-01-28 03:07:00,
2013-01-27 22:08:00,8.1,1.8,30.52,SW,219,0.0,0.0,75,0.00,,,0.01,Wunderground v.1.15,2013-01-28 03:08:00,
2013-01-27 22:09:00,8.1,1.8,30.52,SW,219,0.0,0.0,75,0.00,,,0.01,Wunderground v.1.15,2013-01-28 03:09:00,
2013-01-27 22:11:00,8.2,1.9,30.52,SW,219,0.0,0.0,75,0.00,,,0.01,Wunderground v.1.15,2013-01-28 03:11:00,
2013-01-27 22:13:00,8.2,1.9,30.52,SW,219,0.0,0.0,75,0.00,,,0.01,Wunderground v.1.15,2013-01-28 03:13:00,
2013-01-27 22:16:00,8.1,1.8,30.52,SW,219,0.0,0.0,75,0.00,,,0.01,Wunderground v.1.15,2013-01-28 03:16:00,
2013-01-27 22:17:00,8.1,2.1,30.52,SW,219,0.0,0.0,76,0.00,,,0.01,Wunderground v.1.15,2013-01-28 03:17:00,
2013-01-27 22:18:00,8.1,2.1,30.52,SW,219,0.0,0.0,76,0.00,,,0.01,Wunderground v.1.15,2013-01-28 03:18:00,
2013-01-27 22:22:00,8.1,2.1,30.52,SW,219,0.0,0.0,76,0.00,,,0.01,Wunderground v.1.15,2013-01-28 03:22:00,
2013-01-27 22:23:00,8.1,2.1,30.52,SW,219,0.0,0.0,76,0.00,,,0.01,Wunderground v.1.15,2013-01-28 03:23:00,
2013-01-27 22:25:00,8.0,2.0,30.52,SW,219,0.0,0.0,76,0.00,,,0.01,Wunderground v.1.15,2013-01-28 03:25:00,
2013-01-27 22:26:00,8.0,2.0,30.52,SW,219,0.0,0.0,76,0.00,,,0.01,Wunderground v.1.15,2013-01-28 03:26:00,
2013-01-27 22:27:00,8.0,2.0,30.51,SW,219,0.0,0.0,76,0.00,,,0.01,Wunderground v.1.15,2013-01-28 03:27:00,
2013-01-27 22:28:00,8.0,2.0,30.51,SW,219,0.0,0.0,76,0.00,,,0.01,Wunderground v.1.15,2013-01-28 03:28:00,
2013-01-27 22:30:00,7.9,1.9,30.51,SW,219,0.0,0.0,76,0.00,,,0.01,Wunderground v.1.15,2013-01-28 03:30:00,
2013-01-27 22:32:00,7.9,1.9,30.51,SW,219,0.0,0.0,76,0.00,,,0.01,Wunderground v.1.15,2013-01-28 03:32:00,
2013-01-27 22:34:00,7.8,1.8,30.51,SW,219,0.0,0.0,76,0.00,,,0.01,Wunderground v.1.15,2013-01-28 03:34:00,
2013-01-27 22:36:00,7.8,1.8,30.51,SW,219,0.0,0.0,76,0.00,,,0.01,Wunderground v.1.15,2013-01-28 03:36:00,
2013-01-27 22:37:00,7.7,1.7,30.51,SW,219,0.0,0.0,76,0.00,,,0.01,Wunderground v.1.15,2013-01-28 03:37:00,
2013-01-27 22:40:00,7.7,1.7,30.51,SW,219,0.0,0.0,76,0.00,,,0.01,Wunderground v.1.15,2013-01-28 03:40:00,
2013-01-27 22:43:00,7.6,1.6,30.51,SW,219,0.0,0.0,76,0.00,,,0.01,Wunderground v.1.15,2013-01-28 03:43:00,
2013-01-27 22:46:00,7.5,1.8,30.51,SW,219,0.0,0.0,77,0.00,,,0.01,Wunderground v.1.15,2013-01-28 03:46:00,
2013-01-27 22:48:00,7.4,1.7,30.51,SW,219,0.0,0.0,77,0.00,,,0.01,Wunderground v.1.15,2013-01-28 03:48:00,
2013-01-27 22:49:00,7.3,1.6,30.51,SW,219,0.0,0.0,77,0.00,,,0.01,Wunderground v.1.15,2013-01-28 03:49:00,
2013-01-27 22:51:00,7.3,1.6,30.51,SW,219,0.0,0.0,77,0.00,,,0.01,Wunderground v.1.15,2013-01-28 03:51:00,
2013-01-27 22:53:00,7.2,1.5,30.51,SW,219,0.0,0.0,77,0.00,,,0.01,Wunderground v.1.15,2013-01-28 03:53:00,
2013-01-27 22:56:00,7.1,1.4,30.51,SW,219,0.0,0.0,77,0.00,,,0.01,Wunderground v.1.15,2013-01-28 03:56:00,
2013-01-27 22:57:00,7.1,1.7,30.51,SW,219,0.0,0.0,78,0.00,,,0.01,Wunderground v.1.15,2013-01-28 03:57:00,
2013-01-27 22:58:00,7.1,1.7,30.50,SW,219,0.0,0.0,78,0.00,,,0.01,Wunderground v.1.15,2013-01-28 03:58:00,
2013-01-27 23:02:00,7.0,1.6,30.50,SW,219,0.0,0.0,78,0.00,,,0.01,Wunderground v.1.15,2013-01-28 04:02:00,
2013-01-27 23:03:00,7.0,1.6,30.50,SW,219,0.0,0.0,78,0.00,,,0.01,Wunderground v.1.15,2013-01-28 04:03:00,
2013-01-27 23:04:00,7.0,1.6,30.50,SW,219,0.0,0.0,78,0.00,,,0.01,Wunderground v.1.15,2013-01-28 04:04:00,
2013-01-27 23:09:00,6.9,1.5,30.50,SW,219,0.0,0.0,78,0.00,,,0.01,Wunderground v.1.15,2013-01-28 04:09:00,
2013-01-27 23:10:00,6.9,1.5,30.51,SW,219,0.0,0.0,78,0.00,,,0.01,Wunderground v.1.15,2013-01-28 04:10:00,
2013-01-27 23:13:00,6.9,1.5,30.50,SW,219,0.0,0.0,78,0.00,,,0.01,Wunderground v.1.15,2013-01-28 04:13:00,
2013-01-27 23:14:00,6.9,1.5,30.51,SW,219,0.0,0.0,78,0.00,,,0.01,Wunderground v.1.15,2013-01-28 04:14:00,
2013-01-27 23:15:00,6.9,1.5,30.50,SW,219,0.0,0.0,78,0.00,,,0.01,Wunderground v.1.15,2013-01-28 04:15:00,
2013-01-27 23:19:00,6.9,1.5,30.50,SW,219,0.0,0.0,78,0.00,,,0.01,Wunderground v.1.15,2013-01-28 04:19:00,
2013-01-27 23:20:00,6.9,1.5,30.50,SW,219,0.0,0.0,78,0.00,,,0.01,Wunderground v.1.15,2013-01-28 04:20:00,
2013-01-27 23:21:00,6.9,1.5,30.50,SW,219,0.0,0.0,78,0.00,,,0.01,Wunderground v.1.15,2013-01-28 04:21:00,
2013-01-27 23:23:00,6.8,1.4,30.50,SW,219,0.0,0.0,78,0.00,,,0.01,Wunderground v.1.15,2013-01-28 04:23:00,
2013-01-27 23:25:00,6.8,1.4,30.50,SW,219,0.0,0.0,78,0.00,,,0.01,Wunderground v.1.15,2013-01-28 04:25:00,
2013-01-27 23:26:00,6.7,1.3,30.50,SW,219,0.0,0.0,78,0.00,,,0.01,Wunderground v.1.15,2013-01-28 04:26:00,
2013-01-27 23:28:00,6.7,1.3,30.50,SW,219,0.0,0.0,78,0.00,,,0.01,Wunderground v.1.15,2013-01-28 04:28:00,
2013-01-27 23:30:00,6.7,1.6,30.50,SW,219,0.0,0.0,79,0.00,,,0.01,Wunderground v.1.15,2013-01-28 04:30:00,
2013-01-27 23:31:00,6.7,1.6,30.50,SW,219,0.0,0.0,79,0.00,,,0.01,Wunderground v.1.15,2013-01-28 04:31:00,
2013-01-27 23:33:00,6.7,1.6,30.50,SW,219,0.0,0.0,79,0.00,,,0.01,Wunderground v.1.15,2013-01-28 04:33:00,
2013-01-27 23:34:00,6.7,1.6,30.50,SW,219,0.0,0.0,79,0.00,,,0.01,Wunderground v.1.15,2013-01-28 04:34:00,
2013-01-27 23:36:00,6.7,1.6,30.50,SW,219,0.0,0.0,79,0.00,,,0.01,Wunderground v.1.15,2013-01-28 04:36:00,
2013-01-27 23:37:00,6.7,1.6,30.50,SW,219,0.0,0.0,79,0.00,,,0.01,Wunderground v.1.15,2013-01-28 04:37:00,
2013-01-27 23:40:00,6.8,1.7,30.49,SW,219,0.0,0.0,79,0.00,,,0.01,Wunderground v.1.15,2013-01-28 04:40:00,
2013-01-27 23:41:00,6.8,1.7,30.49,SW,219,0.0,0.0,79,0.00,,,0.01,Wunderground v.1.15,2013-01-28 04:41:00,
2013-01-27 23:42:00,6.8,1.7,30.49,SW,219,0.0,0.0,79,0.00,,,0.01,Wunderground v.1.15,2013-01-28 04:42:00,
2013-01-27 23:43:00,6.8,1.7,30.49,SW,219,0.0,0.0,79,0.00,,,0.01,Wunderground v.1.15,2013-01-28 04:43:00,
2013-01-27 23:45:00,6.8,1.7,30.50,SW,219,0.0,0.0,79,0.00,,,0.01,Wunderground v.1.15,2013-01-28 04:45:00,
2013-01-27 23:48:00,6.8,1.7,30.50,SW,219,0.0,0.0,79,0.00,,,0.01,Wunderground v.1.15,2013-01-28 04:48:00,
2013-01-27 23:49:00,6.9,1.8,30.50,SW,219,0.0,0.0,79,0.00,,,0.01,Wunderground v.1.15,2013-01-28 04:49:00,
2013-01-27 23:54:00,7.0,1.9,30.50,SW,219,0.0,0.0,79,0.00,,,0.01,Wunderground v.1.15,2013-01-28 04:54:00,
2013-01-27 23:55:00,7.0,1.9,30.50,SW,219,0.0,0.0,79,0.00,,,0.01,Wunderground v.1.15,2013-01-28 04:55:00,
2013-01-27 23:56:00,7.1,2.0,30.50,SW,219,0.0,0.0,79,0.00,,,0.01,Wunderground v.1.15,2013-01-28 04:56:00,
2013-01-27 23:59:00,7.1,2.0,30.50,SW,219,0.0,0.0,79,0.00,,,0.01,Wunderground v.1.15,2013-01-28 04:59:00,